Time,TemperatureF,DewpointF,PressureIn,WindDirection,WindDirectionDegrees,WindSpeedMPH,WindSpeedGustMPH,Humidity,HourlyPrecipIn,Conditions,Clouds,dailyrainin,SolarRadiationWatts/m^2,SoftwareType,DateUTC
2013-10-12 00:00:00,63.6,54.8,29.93,WNW,290,4.0,4.0,73,0.00,,,0.00,0,Wunderground v.1.15,2013-10-12 05:00:00,
2013-10-12 00:01:00,63.5,55.1,29.93,WNW,290,4.0,10.0,74,0.00,,,0.00,0,Wunderground v.1.15,2013-10-12 05:01:00,
2013-10-12 00:02:00,63.4,55.0,29.93,West,273,3.0,10.0,74,0.00,,,0.00,0,Wunderground v.1.15,2013-10-12 05:02:00,
2013-10-12 00:06:00,63.2,54.8,29.93,WNW,287,3.0,10.0,74,0.00,,,0.00,0,Wunderground v.1.15,2013-10-12 05:06:00,
2013-10-12 00:07:00,63.1,54.7,29.93,West,265,3.0,10.0,74,0.00,,,0.00,0,Wunderground v.1.15,2013-10-12 05:07:00,
2013-10-12 00:08:00,63.0,54.6,29.93,WNW,285,3.0,10.0,74,0.00,,,0.00,0,Wunderground v.1.15,2013-10-12 05:08:00,
2013-10-12 00:10:00,62.9,54.9,29.93,WNW,303,2.0,2.0,75,0.00,,,0.00,0,Wunderground v.1.15,2013-10-12 05:10:00,
2013-10-12 00:13:00,62.7,54.7,29.93,West,277,2.0,3.0,75,0.00,,,0.00,0,Wunderground v.1.15,2013-10-12 05:13:00,
2013-10-12 00:15:00,62.5,54.5,29.94,WSW,250,2.0,3.0,75,0.00,,,0.00,0,Wunderground v.1.15,2013-10-12 05:15:00,
2013-10-12 00:16:00,62.4,54.4,29.94,WNW,298,2.0,5.0,75,0.00,,,0.00,0,Wunderground v.1.15,2013-10-12 05:16:00,
2013-10-12 00:18:00,62.2,53.4,29.94,WSW,244,2.0,5.0,73,0.00,,,0.00,0,Wunderground v.1.15,2013-10-12 05:18:00,
2013-10-12 00:20:00,62.0,52.5,29.94,WNW,288,3.0,9.0,71,0.00,,,0.00,0,Wunderground v.1.15,2013-10-12 05:20:00,
2013-10-12 00:21:00,61.8,51.9,29.94,WNW,288,3.0,9.0,70,0.00,,,0.00,0,Wunderground v.1.15,2013-10-12 05:21:00,
2013-10-12 00:22:00,61.8,51.9,29.94,WNW,298,4.0,9.0,70,0.00,,,0.00,0,Wunderground v.1.15,2013-10-12 05:22:00,
2013-10-12 00:24:00,61.6,51.3,29.94,West,269,4.0,9.0,69,0.00,,,0.00,0,Wunderground v.1.15,2013-10-12 05:24:00,
2013-10-12 00:28:00,61.3,51.0,29.95,WNW,288,5.0,9.0,69,0.00,,,0.00,0,Wunderground v.1.15,2013-10-12 05:28:00,
2013-10-12 00:29:00,61.2,50.9,29.95,WNW,289,5.0,9.0,69,0.00,,,0.00,0,Wunderground v.1.15,2013-10-12 05:29:00,
2013-10-12 00:30:00,61.2,50.9,29.95,West,272,5.0,5.0,69,0.00,,,0.00,0,Wunderground v.1.15,2013-10-12 05:30:00,
2013-10-12 00:32:00,61.0,50.8,29.95,NW,310,5.0,5.0,69,0.00,,,0.00,0,Wunderground v.1.15,2013-10-12 05:32:00,
2013-10-12 00:33:00,61.0,50.8,29.95,WNW,285,5.0,5.0,69,0.00,,,0.00,0,Wunderground v.1.15,2013-10-12 05:33:00,
2013-10-12 00:34:00,60.9,51.0,29.95,WNW,296,5.0,5.0,70,0.00,,,0.00,0,Wunderground v.1.15,2013-10-12 05:34:00,
2013-10-12 00:39:00,60.7,51.2,29.95,West,277,4.0,5.0,71,0.00,,,0.00,0,Wunderground v.1.15,2013-10-12 05:39:00,
2013-10-12 00:41:00,60.6,51.1,29.95,West,276,3.0,4.0,71,0.00,,,0.00,0,Wunderground v.1.15,2013-10-12 05:41:00,
2013-10-12 00:42:00,60.5,51.0,29.95,WNW,292,3.0,4.0,71,0.00,,,0.00,0,Wunderground v.1.15,2013-10-12 05:42:00,
2013-10-12 00:45:00,60.4,51.3,29.95,WNW,290,3.0,4.0,72,0.00,,,0.00,0,Wunderground v.1.15,2013-10-12 05:45:00,
2013-10-12 00:47:00,60.3,51.2,29.95,WNW,286,3.0,4.0,72,0.00,,,0.00,0,Wunderground v.1.15,2013-10-12 05:47:00,
2013-10-12 00:49:00,60.2,51.1,29.95,WNW,293,3.0,4.0,72,0.00,,,0.00,0,Wunderground v.1.15,2013-10-12 05:49:00,
2013-10-12 00:50:00,60.2,51.1,29.95,WNW,286,3.0,4.0,72,0.00,,,0.00,0,Wunderground v.1.15,2013-10-12 05:50:00,
2013-10-12 00:51:00,60.1,51.0,29.95,WNW,292,4.0,4.0,72,0.00,,,0.00,0,Wunderground v.1.15,2013-10-12 05:51:00,
2013-10-12 00:52:00,60.1,51.0,29.95,WNW,292,4.0,4.0,72,0.00,,,0.00,0,Wunderground v.1.15,2013-10-12 05:52:00,
2013-10-12 00:53:00,60.0,50.9,29.95,WNW,293,4.0,5.0,72,0.00,,,0.00,0,Wunderground v.1.15,2013-10-12 05:53:00,
2013-10-12 00:57:00,59.8,50.8,29.96,West,278,4.0,7.0,72,0.00,,,0.00,0,Wunderground v.1.15,2013-10-12 05:57:00,
2013-10-12 00:58:00,59.8,50.4,29.96,WNW,302,4.0,7.0,71,0.00,,,0.00,0,Wunderground v.1.15,2013-10-12 05:58:00,
2013-10-12 00:59:00,59.7,50.3,29.96,WNW,298,5.0,7.0,71,0.00,,,0.00,0,Wunderground v.1.15,2013-10-12 05:59:00,
2013-10-12 01:00:00,59.7,50.7,29.96,WNW,284,5.0,5.0,72,0.00,,,0.00,0,Wunderground v.1.15,2013-10-12 06:00:00,
2013-10-12 01:03:00,59.6,50.6,29.96,WNW,289,4.0,12.0,72,0.00,,,0.00,0,Wunderground v.1.15,2013-10-12 06:03:00,
2013-10-12 01:04:00,59.5,50.8,29.96,West,279,4.0,12.0,73,0.00,,,0.00,0,Wunderground v.1.15,2013-10-12 06:04:00,
2013-10-12 01:06:00,59.5,50.8,29.96,WNW,285,3.0,12.0,73,0.00,,,0.00,0,Wunderground v.1.15,2013-10-12 06:06:00,
2013-10-12 01:07:00,59.4,50.4,29.96,WNW,292,3.0,12.0,72,0.00,,,0.00,0,Wunderground v.1.15,2013-10-12 06:07:00,
2013-10-12 01:09:00,59.3,50.3,29.96,WNW,285,3.0,12.0,72,0.00,,,0.00,0,Wunderground v.1.15,2013-10-12 06:09:00,
2013-10-12 01:10:00,59.2,50.2,29.96,WNW,297,3.0,3.0,72,0.00,,,0.00,0,Wunderground v.1.15,2013-10-12 06:10:00,
2013-10-12 01:12:00,59.0,49.6,29.96,West,280,3.0,4.0,71,0.00,,,0.00,0,Wunderground v.1.15,2013-10-12 06:12:00,
2013-10-12 01:13:00,58.9,49.5,29.96,WNW,289,3.0,4.0,71,0.00,,,0.00,0,Wunderground v.1.15,2013-10-12 06:13:00,
2013-10-12 01:14:00,58.9,49.5,29.96,WNW,292,3.0,4.0,71,0.00,,,0.00,0,Wunderground v.1.15,2013-10-12 06:14:00,
2013-10-12 01:16:00,58.7,49.3,29.96,WNW,300,3.0,4.0,71,0.00,,,0.00,0,Wunderground v.1.15,2013-10-12 06:16:00,
2013-10-12 01:17:00,58.6,49.2,29.96,WNW,286,3.0,6.0,71,0.00,,,0.00,0,Wunderground v.1.15,2013-10-12 06:17:00,
2013-10-12 01:19:00,58.6,49.2,29.96,WNW,293,3.0,6.0,71,0.00,,,0.00,0,Wunderground v.1.15,2013-10-12 06:19:00,
2013-10-12 01:21:00,58.4,49.0,29.97,WNW,292,3.0,5.0,71,0.00,,,0.00,0,Wunderground v.1.15,2013-10-12 06:21:00,
2013-10-12 01:24:00,58.3,48.9,29.97,WNW,290,4.0,5.0,71,0.00,,,0.00,0,Wunderground v.1.15,2013-10-12 06:24:00,
2013-10-12 01:25:00,58.2,48.8,29.97,WNW,288,4.0,5.0,71,0.00,,,0.00,0,Wunderground v.1.15,2013-10-12 06:25:00,
2013-10-12 01:27:00,58.1,48.7,29.97,WNW,287,4.0,5.0,71,0.00,,,0.00,0,Wunderground v.1.15,2013-10-12 06:27:00,
2013-10-12 01:28:00,58.1,48.7,29.96,WNW,293,4.0,5.0,71,0.00,,,0.00,0,Wunderground v.1.15,2013-10-12 06:28:00,
2013-10-12 01:29:00,58.0,48.6,29.97,West,263,4.0,5.0,71,0.00,,,0.00,0,Wunderground v.1.15,2013-10-12 06:29:00,
2013-10-12 01:33:00,57.8,48.5,29.97,WNW,291,4.0,4.0,71,0.00,,,0.00,0,Wunderground v.1.15,2013-10-12 06:33:00,
2013-10-12 01:35:00,57.6,48.6,29.97,WNW,285,4.0,7.0,72,0.00,,,0.00,0,Wunderground v.1.15,2013-10-12 06:35:00,
2013-10-12 01:36:00,57.6,48.6,29.97,West,269,4.0,7.0,72,0.00,,,0.00,0,Wunderground v.1.15,2013-10-12 06:36:00,
2013-10-12 01:39:00,57.5,48.5,29.97,WNW,286,4.0,7.0,72,0.00,,,0.00,0,Wunderground v.1.15,2013-10-12 06:39:00,
2013-10-12 01:40:00,57.4,48.4,29.97,West,272,4.0,4.0,72,0.00,,,0.00,0,Wunderground v.1.15,2013-10-12 06:40:00,
2013-10-12 01:43:00,57.3,48.3,29.97,WNW,287,3.0,7.0,72,0.00,,,0.00,0,Wunderground v.1.15,2013-10-12 06:43:00,
2013-10-12 01:45:00,57.2,48.3,29.97,WNW,294,3.0,7.0,72,0.00,,,0.00,0,Wunderground v.1.15,2013-10-12 06:45:00,
2013-10-12 01:47:00,57.1,48.2,29.98,WNW,299,3.0,7.0,72,0.00,,,0.00,0,Wunderground v.1.15,2013-10-12 06:47:00,
2013-10-12 01:48:00,57.1,48.2,29.98,WNW,294,3.0,7.0,72,0.00,,,0.00,0,Wunderground v.1.15,2013-10-12 06:48:00,
2013-10-12 01:49:00,57.1,48.2,29.98,WNW,289,3.0,7.0,72,0.00,,,0.00,0,Wunderground v.1.15,2013-10-12 06:49:00,
2013-10-12 01:50:00,57.0,48.1,29.98,WNW,289,3.0,3.0,72,0.00,,,0.00,0,Wunderground v.1.15,2013-10-12 06:50:00,
2013-10-12 01:53:00,56.9,48.0,29.98,NW,304,3.0,4.0,72,0.00,,,0.00,0,Wunderground v.1.15,2013-10-12 06:53:00,
2013-10-12 01:55:00,56.8,47.9,29.98,WNW,290,4.0,5.0,72,0.00,,,0.00,0,Wunderground v.1.15,2013-10-12 06:55:00,
2013-10-12 01:56:00,56.8,47.9,29.98,West,261,4.0,5.0,72,0.00,,,0.00,0,Wunderground v.1.15,2013-10-12 06:56:00,
2013-10-12 01:57:00,56.7,47.8,29.98,WNW,284,3.0,5.0,72,0.00,,,0.00,0,Wunderground v.1.15,2013-10-12 06:57:00,
2013-10-12 01:58:00,56.7,47.8,29.98,WNW,294,4.0,5.0,72,0.00,,,0.00,0,Wunderground v.1.15,2013-10-12 06:58:00,
2013-10-12 02:00:00,56.6,47.7,29.98,West,278,4.0,5.0,72,0.00,,,0.00,0,Wunderground v.1.15,2013-10-12 07:00:00,
2013-10-12 02:01:00,56.6,47.7,29.98,WNW,296,4.0,10.0,72,0.00,,,0.00,0,Wunderground v.1.15,2013-10-12 07:01:00,
2013-10-12 02:03:00,56.5,47.6,29.98,NW,308,3.0,10.0,72,0.00,,,0.00,0,Wunderground v.1.15,2013-10-12 07:03:00,
2013-10-12 02:06:00,56.4,47.5,29.99,NW,313,3.0,10.0,72,0.00,,,0.00,0,Wunderground v.1.15,2013-10-12 07:06:00,
2013-10-12 02:07:00,56.3,47.4,29.99,WNW,296,3.0,10.0,72,0.00,,,0.00,0,Wunderground v.1.15,2013-10-12 07:07:00,
2013-10-12 02:11:00,56.1,47.6,29.99,West,276,3.0,4.0,73,0.00,,,0.00,0,Wunderground v.1.15,2013-10-12 07:11:00,
2013-10-12 02:14:00,56.1,47.6,29.99,WNW,285,3.0,5.0,73,0.00,,,0.00,0,Wunderground v.1.15,2013-10-12 07:14:00,
2013-10-12 02:16:00,56.1,47.6,29.99,WNW,294,3.0,5.0,73,0.00,,,0.00,0,Wunderground v.1.15,2013-10-12 07:16:00,
2013-10-12 02:17:00,56.0,47.5,29.99,WNW,285,3.0,5.0,73,0.00,,,0.00,0,Wunderground v.1.15,2013-10-12 07:17:00,
2013-10-12 02:20:00,56.0,47.5,29.99,WSW,238,3.0,3.0,73,0.00,,,0.00,0,Wunderground v.1.15,2013-10-12 07:20:00,
2013-10-12 02:22:00,56.0,47.5,29.99,WNW,288,2.0,6.0,73,0.00,,,0.00,0,Wunderground v.1.15,2013-10-12 07:22:00,
2013-10-12 02:23:00,56.0,47.5,29.99,WNW,285,2.0,6.0,73,0.00,,,0.00,0,Wunderground v.1.15,2013-10-12 07:23:00,
2013-10-12 02:24:00,56.0,47.5,30.00,West,281,2.0,6.0,73,0.00,,,0.00,0,Wunderground v.1.15,2013-10-12 07:24:00,
2013-10-12 02:26:00,55.9,47.4,30.00,WNW,292,2.0,6.0,73,0.00,,,0.00,0,Wunderground v.1.15,2013-10-12 07:26:00,
2013-10-12 02:30:00,55.9,47.4,30.00,WNW,293,2.0,2.0,73,0.00,,,0.00,0,Wunderground v.1.15,2013-10-12 07:30:00,
2013-10-12 02:31:00,55.9,47.4,30.00,WNW,292,2.0,6.0,73,0.00,,,0.00,0,Wunderground v.1.15,2013-10-12 07:31:00,
2013-10-12 02:32:00,55.9,47.4,30.00,WNW,292,2.0,6.0,73,0.00,,,0.00,0,Wunderground v.1.15,2013-10-12 07:32:00,
2013-10-12 02:33:00,55.9,47.4,30.00,WNW,297,2.0,6.0,73,0.00,,,0.00,0,Wunderground v.1.15,2013-10-12 07:33:00,
2013-10-12 02:37:00,55.8,47.3,30.00,NW,306,3.0,6.0,73,0.00,,,0.00,0,Wunderground v.1.15,2013-10-12 07:37:00,
2013-10-12 02:38:00,55.8,47.3,30.00,WNW,298,3.0,6.0,73,0.00,,,0.00,0,Wunderground v.1.15,2013-10-12 07:38:00,
2013-10-12 02:39:00,55.8,47.3,30.00,WNW,294,3.0,6.0,73,0.00,,,0.00,0,Wunderground v.1.15,2013-10-12 07:39:00,
2013-10-12 02:40:00,55.7,47.2,30.00,West,277,3.0,3.0,73,0.00,,,0.00,0,Wunderground v.1.15,2013-10-12 07:40:00,
2013-10-12 02:45:00,55.7,47.2,30.00,WNW,286,2.0,4.0,73,0.00,,,0.00,0,Wunderground v.1.15,2013-10-12 07:45:00,
2013-10-12 02:46:00,55.7,47.2,30.01,WNW,293,2.0,4.0,73,0.00,,,0.00,0,Wunderground v.1.15,2013-10-12 07:46:00,
2013-10-12 02:48:00,55.6,47.1,30.01,WNW,299,2.0,4.0,73,0.00,,,0.00,0,Wunderground v.1.15,2013-10-12 07:48:00,
2013-10-12 02:49:00,55.6,47.1,30.00,West,269,2.0,4.0,73,0.00,,,0.00,0,Wunderground v.1.15,2013-10-12 07:49:00,
2013-10-12 02:51:00,55.6,47.1,30.00,West,277,2.0,2.0,73,0.00,,,0.00,0,Wunderground v.1.15,2013-10-12 07:51:00,
2013-10-12 02:52:00,55.5,47.0,30.00,WNW,300,2.0,3.0,73,0.00,,,0.00,0,Wunderground v.1.15,2013-10-12 07:52:00,
2013-10-12 02:53:00,55.5,47.0,30.00,NW,311,2.0,4.0,73,0.00,,,0.00,0,Wunderground v.1.15,2013-10-12 07:53:00,
2013-10-12 02:55:00,55.4,46.9,30.00,NW,306,2.0,4.0,73,0.00,,,0.00,0,Wunderground v.1.15,2013-10-12 07:55:00,
2013-10-12 02:57:00,55.4,46.9,30.00,WNW,296,2.0,5.0,73,0.00,,,0.00,0,Wunderground v.1.15,2013-10-12 07:57:00,
2013-10-12 02:58:00,55.4,46.9,30.00,WNW,296,2.0,5.0,73,0.00,,,0.00,0,Wunderground v.1.15,2013-10-12 07:58:00,
2013-10-12 02:59:00,55.4,46.9,30.00,WNW,296,2.0,5.0,73,0.00,,,0.00,0,Wunderground v.1.15,2013-10-12 07:59:00,
2013-10-12 03:01:00,55.3,46.8,30.00,WNW,296,2.0,3.0,73,0.00,,,0.00,0,Wunderground v.1.15,2013-10-12 08:01:00,
2013-10-12 03:03:00,55.3,46.8,30.00,WNW,290,2.0,12.0,73,0.00,,,0.00,0,Wunderground v.1.15,2013-10-12 08:03:00,
2013-10-12 03:06:00,55.1,46.6,30.00,WNW,289,2.0,12.0,73,0.00,,,0.00,0,Wunderground v.1.15,2013-10-12 08:06:00,
2013-10-12 03:07:00,55.1,46.6,30.00,WNW,283,2.0,12.0,73,0.00,,,0.00,0,Wunderground v.1.15,2013-10-12 08:07:00,
2013-10-12 03:10:00,55.0,46.5,30.00,WNW,292,2.0,3.0,73,0.00,,,0.00,0,Wunderground v.1.15,2013-10-12 08:10:00,
2013-10-12 03:11:00,55.0,46.5,30.00,WNW,291,2.0,3.0,73,0.00,,,0.00,0,Wunderground v.1.15,2013-10-12 08:11:00,
2013-10-12 03:12:00,55.0,46.5,30.00,WNW,298,2.0,3.0,73,0.00,,,0.00,0,Wunderground v.1.15,2013-10-12 08:12:00,
2013-10-12 03:17:00,54.8,46.7,30.00,WNW,288,2.0,3.0,74,0.00,,,0.00,0,Wunderground v.1.15,2013-10-12 08:17:00,
2013-10-12 03:18:00,54.8,46.7,30.00,WNW,288,2.0,3.0,74,0.00,,,0.00,0,Wunderground v.1.15,2013-10-12 08:18:00,
2013-10-12 03:20:00,54.7,46.6,30.00,WNW,288,2.0,3.0,74,0.00,,,0.00,0,Wunderground v.1.15,2013-10-12 08:20:00,
2013-10-12 03:22:00,54.6,46.5,30.00,WNW,288,2.0,3.0,74,0.00,,,0.00,0,Wunderground v.1.15,2013-10-12 08:22:00,
2013-10-12 03:23:00,54.6,46.5,30.00,WNW,289,2.0,3.0,74,0.00,,,0.00,0,Wunderground v.1.15,2013-10-12 08:23:00,
2013-10-12 03:25:00,54.6,46.5,30.00,WNW,298,2.0,3.0,74,0.00,,,0.00,0,Wunderground v.1.15,2013-10-12 08:25:00,
2013-10-12 03:27:00,54.5,46.4,30.00,WNW,298,2.0,3.0,74,0.00,,,0.00,0,Wunderground v.1.15,2013-10-12 08:27:00,
2013-10-12 03:28:00,54.4,46.3,30.00,WNW,298,2.0,3.0,74,0.00,,,0.00,0,Wunderground v.1.15,2013-10-12 08:28:00,
2013-10-12 03:31:00,54.3,46.2,30.00,WNW,290,2.0,2.0,74,0.00,,,0.00,0,Wunderground v.1.15,2013-10-12 08:31:00,
2013-10-12 03:32:00,54.3,46.5,30.00,WNW,294,2.0,2.0,75,0.00,,,0.00,0,Wunderground v.1.15,2013-10-12 08:32:00,
2013-10-12 03:34:00,54.2,46.4,30.00,WNW,293,2.0,4.0,75,0.00,,,0.00,0,Wunderground v.1.15,2013-10-12 08:34:00,
2013-10-12 03:35:00,54.2,46.4,30.00,WNW,293,2.0,4.0,75,0.00,,,0.00,0,Wunderground v.1.15,2013-10-12 08:35:00,
2013-10-12 03:36:00,54.2,46.4,30.00,WNW,293,2.0,4.0,75,0.00,,,0.00,0,Wunderground v.1.15,2013-10-12 08:36:00,
2013-10-12 03:37:00,54.2,46.4,30.00,WNW,293,2.0,4.0,75,0.00,,,0.00,0,Wunderground v.1.15,2013-10-12 08:37:00,
2013-10-12 03:39:00,54.1,46.3,30.00,WNW,293,2.0,4.0,75,0.00,,,0.00,0,Wunderground v.1.15,2013-10-12 08:39:00,
2013-10-12 03:41:00,54.0,46.3,30.00,West,270,2.0,2.0,75,0.00,,,0.00,0,Wunderground v.1.15,2013-10-12 08:41:00,
2013-10-12 03:42:00,54.0,46.3,30.01,West,271,2.0,2.0,75,0.00,,,0.00,0,Wunderground v.1.15,2013-10-12 08:42:00,
2013-10-12 03:45:00,53.9,46.2,30.00,West,269,1.0,2.0,75,0.00,,,0.00,0,Wunderground v.1.15,2013-10-12 08:45:00,
2013-10-12 03:47:00,53.9,46.2,30.00,West,279,1.0,2.0,75,0.00,,,0.00,0,Wunderground v.1.15,2013-10-12 08:47:00,
2013-10-12 03:48:00,53.9,46.2,30.01,WNW,291,1.0,2.0,75,0.00,,,0.00,0,Wunderground v.1.15,2013-10-12 08:48:00,
2013-10-12 03:51:00,53.8,46.1,30.01,West,278,2.0,2.0,75,0.00,,,0.00,0,Wunderground v.1.15,2013-10-12 08:51:00,
2013-10-12 03:52:00,53.8,46.1,30.01,WNW,291,2.0,2.0,75,0.00,,,0.00,0,Wunderground v.1.15,2013-10-12 08:52:00,
2013-10-12 03:55:00,53.7,46.0,30.01,WNW,290,2.0,2.0,75,0.00,,,0.00,0,Wunderground v.1.15,2013-10-12 08:55:00,
2013-10-12 03:57:00,53.6,45.9,30.01,WNW,292,2.0,2.0,75,0.00,,,0.00,0,Wunderground v.1.15,2013-10-12 08:57:00,
2013-10-12 03:58:00,53.6,45.9,30.01,West,279,2.0,4.0,75,0.00,,,0.00,0,Wunderground v.1.15,2013-10-12 08:58:00,
2013-10-12 03:59:00,53.6,45.9,30.02,West,279,2.0,4.0,75,0.00,,,0.00,0,Wunderground v.1.15,2013-10-12 08:59:00,
2013-10-12 04:00:00,53.6,45.9,30.02,West,279,2.0,2.0,75,0.00,,,0.00,0,Wunderground v.1.15,2013-10-12 09:00:00,
2013-10-12 04:03:00,53.5,45.8,30.02,West,280,1.0,8.0,75,0.00,,,0.00,0,Wunderground v.1.15,2013-10-12 09:03:00,
2013-10-12 04:04:00,53.5,45.8,30.02,West,280,1.0,8.0,75,0.00,,,0.00,0,Wunderground v.1.15,2013-10-12 09:04:00,
2013-10-12 04:05:00,53.5,45.8,30.02,West,273,1.0,8.0,75,0.00,,,0.00,0,Wunderground v.1.15,2013-10-12 09:05:00,
2013-10-12 04:07:00,53.5,45.8,30.02,West,273,1.0,8.0,75,0.00,,,0.00,0,Wunderground v.1.15,2013-10-12 09:07:00,
2013-10-12 04:08:00,53.5,45.8,30.02,West,273,1.0,8.0,75,0.00,,,0.00,0,Wunderground v.1.15,2013-10-12 09:08:00,
2013-10-12 04:10:00,53.4,45.7,30.02,West,273,1.0,1.0,75,0.00,,,0.00,0,Wunderground v.1.15,2013-10-12 09:10:00,
2013-10-12 04:12:00,53.3,45.6,30.02,West,273,1.0,2.0,75,0.00,,,0.00,0,Wunderground v.1.15,2013-10-12 09:12:00,
2013-10-12 04:13:00,53.3,45.6,30.02,West,273,1.0,2.0,75,0.00,,,0.00,0,Wunderground v.1.15,2013-10-12 09:13:00,
2013-10-12 04:14:00,53.3,45.6,30.02,West,273,1.0,2.0,75,0.00,,,0.00,0,Wunderground v.1.15,2013-10-12 09:14:00,
2013-10-12 04:16:00,53.3,45.6,30.03,West,273,1.0,2.0,75,0.00,,,0.00,0,Wunderground v.1.15,2013-10-12 09:16:00,
2013-10-12 04:19:00,53.2,45.5,30.03,West,273,1.0,2.0,75,0.00,,,0.00,0,Wunderground v.1.15,2013-10-12 09:19:00,
2013-10-12 04:21:00,53.2,45.5,30.03,West,273,1.0,1.0,75,0.00,,,0.00,0,Wunderground v.1.15,2013-10-12 09:21:00,
2013-10-12 04:22:00,53.2,45.5,30.03,West,273,1.0,3.0,75,0.00,,,0.00,0,Wunderground v.1.15,2013-10-12 09:22:00,
2013-10-12 04:25:00,53.1,45.4,30.03,West,273,1.0,3.0,75,0.00,,,0.00,0,Wunderground v.1.15,2013-10-12 09:25:00,
2013-10-12 04:27:00,53.0,45.3,30.03,West,273,1.0,3.0,75,0.00,,,0.00,0,Wunderground v.1.15,2013-10-12 09:27:00,
2013-10-12 04:29:00,53.0,45.6,30.04,West,273,1.0,3.0,76,0.00,,,0.00,0,Wunderground v.1.15,2013-10-12 09:29:00,
2013-10-12 04:31:00,53.0,45.6,30.03,West,273,1.0,1.0,76,0.00,,,0.00,0,Wunderground v.1.15,2013-10-12 09:31:00,
2013-10-12 04:32:00,52.9,45.5,30.03,West,273,1.0,2.0,76,0.00,,,0.00,0,Wunderground v.1.15,2013-10-12 09:32:00,
2013-10-12 04:35:00,52.8,45.4,30.04,West,273,0.0,2.0,76,0.00,,,0.00,0,Wunderground v.1.15,2013-10-12 09:35:00,
2013-10-12 04:38:00,52.7,45.3,30.04,West,273,0.0,2.0,76,0.00,,,0.00,0,Wunderground v.1.15,2013-10-12 09:38:00,
2013-10-12 04:39:00,52.6,45.2,30.04,West,273,0.0,2.0,76,0.00,,,0.00,0,Wunderground v.1.15,2013-10-12 09:39:00,
2013-10-12 04:40:00,52.6,45.2,30.04,West,273,0.0,1.0,76,0.00,,,0.00,0,Wunderground v.1.15,2013-10-12 09:40:00,
2013-10-12 04:42:00,52.5,45.2,30.04,West,273,1.0,2.0,76,0.00,,,0.00,0,Wunderground v.1.15,2013-10-12 09:42:00,
2013-10-12 04:44:00,52.4,45.1,30.04,West,273,1.0,2.0,76,0.00,,,0.00,0,Wunderground v.1.15,2013-10-12 09:44:00,
2013-10-12 04:46:00,52.4,45.1,30.04,West,273,1.0,3.0,76,0.00,,,0.00,0,Wunderground v.1.15,2013-10-12 09:46:00,
2013-10-12 04:47:00,52.3,45.0,30.04,West,273,1.0,3.0,76,0.00,,,0.00,0,Wunderground v.1.15,2013-10-12 09:47:00,
2013-10-12 04:49:00,52.2,44.9,30.05,West,273,1.0,3.0,76,0.00,,,0.00,0,Wunderground v.1.15,2013-10-12 09:49:00,
2013-10-12 04:50:00,52.2,44.9,30.05,West,273,1.0,1.0,76,0.00,,,0.00,0,Wunderground v.1.15,2013-10-12 09:50:00,
2013-10-12 04:54:00,52.1,45.1,30.05,West,273,1.0,2.0,77,0.00,,,0.00,0,Wunderground v.1.15,2013-10-12 09:54:00,
2013-10-12 04:56:00,52.1,45.1,30.05,West,273,1.0,2.0,77,0.00,,,0.00,0,Wunderground v.1.15,2013-10-12 09:56:00,
2013-10-12 04:58:00,52.1,45.1,30.05,West,273,1.0,2.0,77,0.00,,,0.00,0,Wunderground v.1.15,2013-10-12 09:58:00,
2013-10-12 05:00:00,52.0,45.0,30.05,West,273,1.0,2.0,77,0.00,,,0.00,0,Wunderground v.1.15,2013-10-12 10:00:00,
2013-10-12 05:03:00,51.9,44.9,30.05,West,273,1.0,7.0,77,0.00,,,0.00,0,Wunderground v.1.15,2013-10-12 10:03:00,
2013-10-12 05:04:00,51.9,44.9,30.05,West,273,1.0,7.0,77,0.00,,,0.00,0,Wunderground v.1.15,2013-10-12 10:04:00,
2013-10-12 05:06:00,51.9,44.9,30.05,West,273,1.0,7.0,77,0.00,,,0.00,0,Wunderground v.1.15,2013-10-12 10:06:00,
2013-10-12 05:09:00,51.8,44.8,30.05,West,273,0.0,7.0,77,0.00,,,0.00,0,Wunderground v.1.15,2013-10-12 10:09:00,
2013-10-12 05:11:00,51.7,44.7,30.05,West,273,0.0,0.0,77,0.00,,,0.00,0,Wunderground v.1.15,2013-10-12 10:11:00,
2013-10-12 05:12:00,51.7,44.7,30.05,West,273,0.0,1.0,77,0.00,,,0.00,0,Wunderground v.1.15,2013-10-12 10:12:00,
2013-10-12 05:13:00,51.7,44.7,30.05,West,273,0.0,1.0,77,0.00,,,0.00,0,Wunderground v.1.15,2013-10-12 10:13:00,
2013-10-12 05:15:00,51.6,44.6,30.05,West,273,1.0,1.0,77,0.00,,,0.00,0,Wunderground v.1.15,2013-10-12 10:15:00,
2013-10-12 05:17:00,51.5,44.5,30.06,West,273,1.0,2.0,77,0.00,,,0.00,0,Wunderground v.1.15,2013-10-12 10:17:00,
2013-10-12 05:18:00,51.5,44.5,30.06,West,273,1.0,2.0,77,0.00,,,0.00,0,Wunderground v.1.15,2013-10-12 10:18:00,
2013-10-12 05:19:00,51.5,44.5,30.06,West,273,1.0,2.0,77,0.00,,,0.00,0,Wunderground v.1.15,2013-10-12 10:19:00,
2013-10-12 05:21:00,51.4,44.4,30.06,West,273,1.0,1.0,77,0.00,,,0.00,0,Wunderground v.1.15,2013-10-12 10:21:00,
2013-10-12 05:24:00,51.3,44.3,30.06,West,273,1.0,2.0,77,0.00,,,0.00,0,Wunderground v.1.15,2013-10-12 10:24:00,
2013-10-12 05:26:00,51.2,44.6,30.06,West,273,1.0,2.0,78,0.00,,,0.00,0,Wunderground v.1.15,2013-10-12 10:26:00,
2013-10-12 05:29:00,51.1,44.5,30.07,West,273,1.0,3.0,78,0.00,,,0.00,0,Wunderground v.1.15,2013-10-12 10:29:00,
2013-10-12 05:31:00,51.0,44.4,30.07,West,273,1.0,1.0,78,0.00,,,0.00,0,Wunderground v.1.15,2013-10-12 10:31:00,
2013-10-12 05:33:00,50.9,44.3,30.07,West,273,1.0,1.0,78,0.00,,,0.00,0,Wunderground v.1.15,2013-10-12 10:33:00,
2013-10-12 05:34:00,50.9,44.3,30.07,West,273,1.0,1.0,78,0.00,,,0.00,0,Wunderground v.1.15,2013-10-12 10:34:00,
2013-10-12 05:37:00,50.8,44.2,30.07,West,273,1.0,1.0,78,0.00,,,0.00,0,Wunderground v.1.15,2013-10-12 10:37:00,
2013-10-12 05:38:00,50.8,44.2,30.07,West,273,1.0,1.0,78,0.00,,,0.00,0,Wunderground v.1.15,2013-10-12 10:38:00,
2013-10-12 05:40:00,50.7,44.4,30.07,West,273,1.0,1.0,79,0.00,,,0.00,0,Wunderground v.1.15,2013-10-12 10:40:00,
2013-10-12 05:41:00,50.6,44.3,30.07,West,273,1.0,1.0,79,0.00,,,0.00,0,Wunderground v.1.15,2013-10-12 10:41:00,
2013-10-12 05:44:00,50.5,44.2,30.07,West,273,1.0,1.0,79,0.00,,,0.00,0,Wunderground v.1.15,2013-10-12 10:44:00,
2013-10-12 05:46:00,50.5,44.2,30.07,West,273,1.0,1.0,79,0.00,,,0.00,0,Wunderground v.1.15,2013-10-12 10:46:00,
2013-10-12 05:47:00,50.5,44.2,30.07,West,273,1.0,1.0,79,0.00,,,0.00,0,Wunderground v.1.15,2013-10-12 10:47:00,
2013-10-12 05:50:00,50.3,44.0,30.07,West,273,0.0,0.0,79,0.00,,,0.00,0,Wunderground v.1.15,2013-10-12 10:50:00,
2013-10-12 05:51:00,50.3,44.0,30.07,West,273,0.0,0.0,79,0.00,,,0.00,0,Wunderground v.1.15,2013-10-12 10:51:00,
2013-10-12 05:52:00,50.3,44.0,30.07,West,273,0.0,0.0,79,0.00,,,0.00,0,Wunderground v.1.15,2013-10-12 10:52:00,
2013-10-12 05:54:00,50.2,43.9,30.07,West,273,0.0,0.0,79,0.00,,,0.00,0,Wunderground v.1.15,2013-10-12 10:54:00,
2013-10-12 05:55:00,50.2,43.9,30.07,West,273,0.0,2.0,79,0.00,,,0.00,0,Wunderground v.1.15,2013-10-12 10:55:00,
2013-10-12 05:58:00,50.0,43.7,30.08,West,273,0.0,2.0,79,0.00,,,0.00,0,Wunderground v.1.15,2013-10-12 10:58:00,
2013-10-12 05:59:00,50.0,43.7,30.08,West,273,0.0,2.0,79,0.00,,,0.00,0,Wunderground v.1.15,2013-10-12 10:59:00,
2013-10-12 06:01:00,49.9,43.6,30.08,West,273,0.0,4.0,79,0.00,,,0.00,0,Wunderground v.1.15,2013-10-12 11:01:00,
2013-10-12 06:02:00,49.8,43.5,30.08,West,273,0.0,4.0,79,0.00,,,0.00,0,Wunderground v.1.15,2013-10-12 11:02:00,
2013-10-12 06:03:00,49.7,43.5,30.07,West,273,0.0,4.0,79,0.00,,,0.00,0,Wunderground v.1.15,2013-10-12 11:03:00,
2013-10-12 06:05:00,49.6,43.4,30.08,West,273,0.0,4.0,79,0.00,,,0.00,0,Wunderground v.1.15,2013-10-12 11:05:00,
2013-10-12 06:06:00,49.6,43.7,30.08,West,273,0.0,4.0,80,0.00,,,0.00,0,Wunderground v.1.15,2013-10-12 11:06:00,
2013-10-12 06:10:00,49.4,43.5,30.08,West,273,0.0,0.0,80,0.00,,,0.00,0,Wunderground v.1.15,2013-10-12 11:10:00,
2013-10-12 06:11:00,49.4,43.5,30.08,West,273,0.0,0.0,80,0.00,,,0.00,0,Wunderground v.1.15,2013-10-12 11:11:00,
2013-10-12 06:13:00,49.3,43.4,30.08,West,273,0.0,0.0,80,0.00,,,0.00,0,Wunderground v.1.15,2013-10-12 11:13:00,
2013-10-12 06:14:00,49.3,43.4,30.08,West,273,0.0,0.0,80,0.00,,,0.00,0,Wunderground v.1.15,2013-10-12 11:14:00,
2013-10-12 06:16:00,49.2,43.3,30.08,West,273,0.0,0.0,80,0.00,,,0.00,0,Wunderground v.1.15,2013-10-12 11:16:00,
2013-10-12 06:18:00,49.1,43.2,30.08,West,273,0.0,0.0,80,0.00,,,0.00,0,Wunderground v.1.15,2013-10-12 11:18:00,
2013-10-12 06:20:00,49.1,43.5,30.08,West,273,0.0,0.0,81,0.00,,,0.00,0,Wunderground v.1.15,2013-10-12 11:20:00,
2013-10-12 06:22:00,49.0,43.4,30.08,West,273,0.0,0.0,81,0.00,,,0.00,0,Wunderground v.1.15,2013-10-12 11:22:00,
2013-10-12 06:24:00,48.9,43.3,30.08,West,273,0.0,0.0,81,0.00,,,0.00,0,Wunderground v.1.15,2013-10-12 11:24:00,
2013-10-12 06:25:00,48.8,43.2,30.08,West,273,0.0,0.0,81,0.00,,,0.00,0,Wunderground v.1.15,2013-10-12 11:25:00,
2013-10-12 06:26:00,48.8,43.2,30.08,West,273,0.0,0.0,81,0.00,,,0.00,0,Wunderground v.1.15,2013-10-12 11:26:00,
2013-10-12 06:27:00,48.7,43.1,30.08,West,273,0.0,0.0,81,0.00,,,0.00,0,Wunderground v.1.15,2013-10-12 11:27:00,
2013-10-12 06:29:00,48.7,43.1,30.08,West,273,0.0,0.0,81,0.00,,,0.00,0,Wunderground v.1.15,2013-10-12 11:29:00,
2013-10-12 06:31:00,48.6,43.0,30.08,West,273,0.0,0.0,81,0.00,,,0.00,0,Wunderground v.1.15,2013-10-12 11:31:00,
2013-10-12 06:32:00,48.5,42.9,30.08,West,273,0.0,0.0,81,0.00,,,0.00,0,Wunderground v.1.15,2013-10-12 11:32:00,
2013-10-12 06:33:00,48.5,42.9,30.08,West,273,0.0,2.0,81,0.00,,,0.00,0,Wunderground v.1.15,2013-10-12 11:33:00,
2013-10-12 06:34:00,48.4,42.8,30.09,West,273,0.0,2.0,81,0.00,,,0.00,0,Wunderground v.1.15,2013-10-12 11:34:00,
2013-10-12 06:35:00,48.3,42.7,30.09,West,273,0.0,2.0,81,0.00,,,0.00,0,Wunderground v.1.15,2013-10-12 11:35:00,
2013-10-12 06:36:00,48.3,42.7,30.09,West,273,0.0,2.0,81,0.00,,,0.00,0,Wunderground v.1.15,2013-10-12 11:36:00,
2013-10-12 06:37:00,48.3,42.7,30.09,West,273,0.0,2.0,81,0.00,,,0.00,0,Wunderground v.1.15,2013-10-12 11:37:00,
2013-10-12 06:39:00,48.2,42.6,30.09,West,273,0.0,2.0,81,0.00,,,0.00,0,Wunderground v.1.15,2013-10-12 11:39:00,
2013-10-12 06:40:00,48.2,43.0,30.09,West,273,1.0,1.0,82,0.00,,,0.00,0,Wunderground v.1.15,2013-10-12 11:40:00,
2013-10-12 06:44:00,48.1,42.9,30.09,West,273,1.0,1.0,82,0.00,,,0.00,0,Wunderground v.1.15,2013-10-12 11:44:00,
2013-10-12 06:45:00,48.1,42.9,30.09,West,273,1.0,1.0,82,0.00,,,0.00,0,Wunderground v.1.15,2013-10-12 11:45:00,
2013-10-12 06:46:00,48.1,42.9,30.09,West,273,1.0,1.0,82,0.00,,,0.00,0,Wunderground v.1.15,2013-10-12 11:46:00,
2013-10-12 06:47:00,48.1,42.9,30.09,West,273,1.0,1.0,82,0.00,,,0.00,0,Wunderground v.1.15,2013-10-12 11:47:00,
2013-10-12 06:50:00,48.1,43.2,30.09,West,271,1.0,1.0,83,0.00,,,0.00,0,Wunderground v.1.15,2013-10-12 11:50:00,
2013-10-12 06:52:00,48.1,43.2,30.09,WNW,291,1.0,3.0,83,0.00,,,0.00,0,Wunderground v.1.15,2013-10-12 11:52:00,
2013-10-12 06:53:00,48.1,43.2,30.09,West,270,1.0,3.0,83,0.00,,,0.00,0,Wunderground v.1.15,2013-10-12 11:53:00,
2013-10-12 06:57:00,48.1,43.2,30.10,West,270,1.0,3.0,83,0.00,,,0.00,0,Wunderground v.1.15,2013-10-12 11:57:00,
2013-10-12 06:59:00,48.1,43.2,30.10,WSW,256,1.0,3.0,83,0.00,,,0.00,0,Wunderground v.1.15,2013-10-12 11:59:00,
2013-10-12 07:00:00,48.2,43.3,30.10,WSW,256,1.0,2.0,83,0.00,,,0.00,0,Wunderground v.1.15,2013-10-12 12:00:00,
2013-10-12 07:04:00,48.1,43.2,30.10,WSW,248,2.0,3.0,83,0.00,,,0.00,0,Wunderground v.1.15,2013-10-12 12:04:00,
2013-10-12 07:05:00,48.1,43.2,30.10,WSW,248,2.0,3.0,83,0.00,,,0.00,0,Wunderground v.1.15,2013-10-12 12:05:00,
2013-10-12 07:08:00,48.1,42.9,30.10,WSW,248,2.0,3.0,82,0.00,,,0.00,0,Wunderground v.1.15,2013-10-12 12:08:00,
2013-10-12 07:10:00,48.0,42.8,30.10,WSW,248,2.0,2.0,82,0.00,,,0.00,0,Wunderground v.1.15,2013-10-12 12:10:00,
2013-10-12 07:11:00,48.0,42.8,30.10,WSW,248,1.0,2.0,82,0.00,,,0.00,0,Wunderground v.1.15,2013-10-12 12:11:00,
2013-10-12 07:13:00,48.0,42.8,30.10,WSW,248,1.0,2.0,82,0.00,,,0.00,0,Wunderground v.1.15,2013-10-12 12:13:00,
2013-10-12 07:14:00,47.9,42.7,30.10,WSW,248,1.0,2.0,82,0.00,,,0.00,0,Wunderground v.1.15,2013-10-12 12:14:00,
2013-10-12 07:16:00,47.9,42.7,30.10,WSW,248,1.0,2.0,82,0.00,,,0.00,0,Wunderground v.1.15,2013-10-12 12:16:00,
2013-10-12 07:18:00,47.8,42.6,30.11,WSW,248,0.0,2.0,82,0.00,,,0.00,0,Wunderground v.1.15,2013-10-12 12:18:00,
2013-10-12 07:19:00,47.8,42.6,30.11,WSW,248,0.0,2.0,82,0.00,,,0.00,0,Wunderground v.1.15,2013-10-12 12:19:00,
2013-10-12 07:22:00,47.7,42.5,30.11,WSW,244,1.0,3.0,82,0.00,,,0.00,0,Wunderground v.1.15,2013-10-12 12:22:00,
2013-10-12 07:23:00,47.7,42.5,30.11,WSW,244,1.0,3.0,82,0.00,,,0.00,0,Wunderground v.1.15,2013-10-12 12:23:00,
2013-10-12 07:25:00,47.7,42.5,30.11,WSW,244,1.0,3.0,82,0.00,,,0.00,0,Wunderground v.1.15,2013-10-12 12:25:00,
2013-10-12 07:27:00,47.7,42.5,30.11,WSW,244,1.0,3.0,82,0.00,,,0.00,0,Wunderground v.1.15,2013-10-12 12:27:00,
2013-10-12 07:29:00,47.7,42.5,30.11,WSW,244,2.0,3.0,82,0.00,,,0.00,0,Wunderground v.1.15,2013-10-12 12:29:00,
2013-10-12 07:32:00,47.7,42.5,30.12,WSW,244,2.0,3.0,82,0.00,,,0.00,5,Wunderground v.1.15,2013-10-12 12:32:00,
2013-10-12 07:33:00,47.7,42.5,30.12,WSW,244,2.0,3.0,82,0.00,,,0.00,5,Wunderground v.1.15,2013-10-12 12:33:00,
2013-10-12 07:37:00,47.7,42.5,30.12,WSW,244,1.0,3.0,82,0.00,,,0.00,7,Wunderground v.1.15,2013-10-12 12:37:00,
2013-10-12 07:38:00,47.7,42.5,30.12,WSW,244,1.0,3.0,82,0.00,,,0.00,9,Wunderground v.1.15,2013-10-12 12:38:00,
2013-10-12 07:40:00,47.7,42.5,30.12,WSW,244,1.0,1.0,82,0.00,,,0.00,9,Wunderground v.1.15,2013-10-12 12:40:00,
2013-10-12 07:44:00,47.6,42.4,30.13,SW,228,2.0,3.0,82,0.00,,,0.00,14,Wunderground v.1.15,2013-10-12 12:44:00,
2013-10-12 07:45:00,47.6,42.4,30.13,SW,229,2.0,3.0,82,0.00,,,0.00,16,Wunderground v.1.15,2013-10-12 12:45:00,
2013-10-12 07:47:00,47.6,42.4,30.13,SW,227,2.0,3.0,82,0.00,,,0.00,16,Wunderground v.1.15,2013-10-12 12:47:00,
2013-10-12 07:48:00,47.7,42.5,30.13,SW,227,2.0,3.0,82,0.00,,,0.00,16,Wunderground v.1.15,2013-10-12 12:48:00,
2013-10-12 07:49:00,47.7,42.5,30.13,SW,231,2.0,3.0,82,0.00,,,0.00,18,Wunderground v.1.15,2013-10-12 12:49:00,
2013-10-12 07:51:00,47.7,42.5,30.13,SW,231,3.0,3.0,82,0.00,,,0.00,18,Wunderground v.1.15,2013-10-12 12:51:00,
2013-10-12 07:52:00,47.7,42.5,30.13,SW,232,3.0,3.0,82,0.00,,,0.00,19,Wunderground v.1.15,2013-10-12 12:52:00,
2013-10-12 07:55:00,47.8,42.6,30.14,SW,232,3.0,3.0,82,0.00,,,0.00,21,Wunderground v.1.15,2013-10-12 12:55:00,
2013-10-12 07:56:00,47.8,42.6,30.14,SW,232,2.0,3.0,82,0.00,,,0.00,23,Wunderground v.1.15,2013-10-12 12:56:00,
2013-10-12 07:57:00,47.8,42.6,30.14,SW,232,2.0,3.0,82,0.00,,,0.00,23,Wunderground v.1.15,2013-10-12 12:57:00,
2013-10-12 07:58:00,47.9,42.7,30.14,SW,229,2.0,3.0,82,0.00,,,0.00,26,Wunderground v.1.15,2013-10-12 12:58:00,
2013-10-12 08:02:00,47.9,42.7,30.14,SW,229,2.0,4.0,82,0.00,,,0.00,39,Wunderground v.1.15,2013-10-12 13:02:00,
2013-10-12 08:03:00,48.0,42.8,30.14,SW,229,2.0,5.0,82,0.00,,,0.00,46,Wunderground v.1.15,2013-10-12 13:03:00,
2013-10-12 08:06:00,48.1,42.9,30.14,SW,229,2.0,5.0,82,0.00,,,0.00,63,Wunderground v.1.15,2013-10-12 13:06:00,
2013-10-12 08:08:00,48.2,43.0,30.14,SW,229,2.0,5.0,82,0.00,,,0.00,81,Wunderground v.1.15,2013-10-12 13:08:00,
2013-10-12 08:11:00,48.3,42.7,30.14,SW,229,2.0,3.0,81,0.00,,,0.00,72,Wunderground v.1.15,2013-10-12 13:11:00,
2013-10-12 08:12:00,48.3,42.7,30.14,SW,229,2.0,3.0,81,0.00,,,0.00,54,Wunderground v.1.15,2013-10-12 13:12:00,
2013-10-12 08:14:00,48.4,42.8,30.14,WNW,293,2.0,3.0,81,0.00,,,0.00,42,Wunderground v.1.15,2013-10-12 13:14:00,
2013-10-12 08:16:00,48.5,42.9,30.14,WNW,292,2.0,3.0,81,0.00,,,0.00,37,Wunderground v.1.15,2013-10-12 13:16:00,
2013-10-12 08:18:00,48.5,42.9,30.14,WNW,292,1.0,3.0,81,0.00,,,0.00,54,Wunderground v.1.15,2013-10-12 13:18:00,
2013-10-12 08:19:00,48.5,42.9,30.14,WNW,292,1.0,3.0,81,0.00,,,0.00,51,Wunderground v.1.15,2013-10-12 13:19:00,
2013-10-12 08:21:00,48.7,43.1,30.14,West,276,1.0,2.0,81,0.00,,,0.00,125,Wunderground v.1.15,2013-10-12 13:21:00,
2013-10-12 08:22:00,48.7,43.1,30.14,WSW,245,1.0,2.0,81,0.00,,,0.00,128,Wunderground v.1.15,2013-10-12 13:22:00,
2013-10-12 08:23:00,48.7,43.1,30.14,WSW,244,1.0,2.0,81,0.00,,,0.00,130,Wunderground v.1.15,2013-10-12 13:23:00,
2013-10-12 08:28:00,48.8,43.2,30.15,WSW,242,1.0,2.0,81,0.00,,,0.00,76,Wunderground v.1.15,2013-10-12 13:28:00,
2013-10-12 08:29:00,48.9,43.3,30.15,WSW,242,1.0,2.0,81,0.00,,,0.00,54,Wunderground v.1.15,2013-10-12 13:29:00,
2013-10-12 08:30:00,49.0,43.4,30.15,WSW,242,1.0,1.0,81,0.00,,,0.00,37,Wunderground v.1.15,2013-10-12 13:30:00,
2013-10-12 08:32:00,49.0,43.4,30.15,WSW,242,1.0,1.0,81,0.00,,,0.00,35,Wunderground v.1.15,2013-10-12 13:32:00,
2013-10-12 08:35:00,49.2,43.6,30.14,WSW,242,1.0,2.0,81,0.00,,,0.00,44,Wunderground v.1.15,2013-10-12 13:35:00,
2013-10-12 08:38:00,49.3,43.4,30.15,WSW,241,1.0,3.0,80,0.00,,,0.00,37,Wunderground v.1.15,2013-10-12 13:38:00,
2013-10-12 08:40:00,49.3,43.4,30.14,WSW,241,1.0,1.0,80,0.00,,,0.00,65,Wunderground v.1.15,2013-10-12 13:40:00,
2013-10-12 08:41:00,49.4,43.5,30.15,WSW,241,1.0,1.0,80,0.00,,,0.00,51,Wunderground v.1.15,2013-10-12 13:41:00,
2013-10-12 08:42:00,49.4,43.5,30.15,WSW,241,1.0,1.0,80,0.00,,,0.00,77,Wunderground v.1.15,2013-10-12 13:42:00,
2013-10-12 08:43:00,49.5,43.6,30.15,SW,236,1.0,1.0,80,0.00,,,0.00,209,Wunderground v.1.15,2013-10-12 13:43:00,
2013-10-12 08:44:00,49.5,43.6,30.15,SW,236,1.0,3.0,80,0.00,,,0.00,213,Wunderground v.1.15,2013-10-12 13:44:00,
2013-10-12 08:46:00,49.6,43.7,30.15,West,263,1.0,3.0,80,0.00,,,0.00,218,Wunderground v.1.15,2013-10-12 13:46:00,
2013-10-12 08:47:00,49.7,43.8,30.15,WSW,248,1.0,3.0,80,0.00,,,0.00,221,Wunderground v.1.15,2013-10-12 13:47:00,
2013-10-12 08:50:00,49.9,44.0,30.15,SW,225,1.0,5.0,80,0.00,,,0.00,151,Wunderground v.1.15,2013-10-12 13:50:00,
2013-10-12 08:52:00,50.0,43.7,30.15,SW,232,2.0,5.0,79,0.00,,,0.00,97,Wunderground v.1.15,2013-10-12 13:52:00,
2013-10-12 08:55:00,50.2,43.9,30.15,West,268,1.0,5.0,79,0.00,,,0.00,70,Wunderground v.1.15,2013-10-12 13:55:00,
2013-10-12 08:56:00,50.3,44.4,30.15,West,259,1.0,5.0,80,0.00,,,0.00,86,Wunderground v.1.15,2013-10-12 13:56:00,
2013-10-12 08:57:00,50.4,44.1,30.15,WNW,290,1.0,5.0,79,0.00,,,0.00,130,Wunderground v.1.15,2013-10-12 13:57:00,
2013-10-12 08:58:00,50.5,44.2,30.15,WNW,290,1.0,5.0,79,0.00,,,0.00,120,Wunderground v.1.15,2013-10-12 13:58:00,
2013-10-12 08:59:00,50.5,44.2,30.15,SW,228,1.0,5.0,79,0.00,,,0.00,35,Wunderground v.1.15,2013-10-12 13:59:00,
2013-10-12 09:01:00,50.7,44.1,30.16,WNW,292,1.0,5.0,78,0.00,,,0.00,46,Wunderground v.1.15,2013-10-12 14:01:00,
2013-10-12 09:04:00,50.9,44.3,30.15,SW,232,2.0,5.0,78,0.00,,,0.00,39,Wunderground v.1.15,2013-10-12 14:04:00,
2013-10-12 09:06:00,51.1,44.1,30.15,West,277,2.0,5.0,77,0.00,,,0.00,135,Wunderground v.1.15,2013-10-12 14:06:00,
2013-10-12 09:09:00,51.3,44.0,30.15,WSW,249,2.0,5.0,76,0.00,,,0.00,153,Wunderground v.1.15,2013-10-12 14:09:00,
2013-10-12 09:10:00,51.4,44.1,30.15,WNW,298,2.0,2.0,76,0.00,,,0.00,60,Wunderground v.1.15,2013-10-12 14:10:00,
2013-10-12 09:11:00,51.5,44.2,30.16,West,268,2.0,2.0,76,0.00,,,0.00,44,Wunderground v.1.15,2013-10-12 14:11:00,
2013-10-12 09:12:00,51.6,43.9,30.16,West,270,2.0,2.0,75,0.00,,,0.00,84,Wunderground v.1.15,2013-10-12 14:12:00,
2013-10-12 09:14:00,51.8,44.1,30.16,WNW,286,1.0,2.0,75,0.00,,,0.00,67,Wunderground v.1.15,2013-10-12 14:14:00,
2013-10-12 09:17:00,52.0,44.3,30.16,West,280,2.0,4.0,75,0.00,,,0.00,104,Wunderground v.1.15,2013-10-12 14:17:00,
2013-10-12 09:18:00,52.1,44.1,30.16,WNW,296,2.0,4.0,74,0.00,,,0.00,100,Wunderground v.1.15,2013-10-12 14:18:00,
2013-10-12 09:19:00,52.1,44.1,30.16,WNW,296,2.0,4.0,74,0.00,,,0.00,100,Wunderground v.1.15,2013-10-12 14:19:00,
2013-10-12 09:20:00,52.3,44.3,30.16,West,263,2.0,4.0,74,0.00,,,0.00,100,Wunderground v.1.15,2013-10-12 14:20:00,
2013-10-12 09:23:00,52.6,44.2,30.16,NW,307,3.0,4.0,73,0.00,,,0.00,185,Wunderground v.1.15,2013-10-12 14:23:00,
2013-10-12 09:25:00,52.8,44.0,30.16,West,267,3.0,4.0,72,0.00,,,0.00,218,Wunderground v.1.15,2013-10-12 14:25:00,
2013-10-12 09:26:00,52.8,44.0,30.16,WNW,284,3.0,4.0,72,0.00,,,0.00,218,Wunderground v.1.15,2013-10-12 14:26:00,
2013-10-12 09:28:00,53.0,43.8,30.17,West,279,2.0,4.0,71,0.00,,,0.00,47,Wunderground v.1.15,2013-10-12 14:28:00,
2013-10-12 09:30:00,53.2,44.0,30.16,WNW,295,2.0,3.0,71,0.00,,,0.00,39,Wunderground v.1.15,2013-10-12 14:30:00,
2013-10-12 09:32:00,53.3,43.8,30.17,WSW,255,2.0,3.0,70,0.00,,,0.00,39,Wunderground v.1.15,2013-10-12 14:32:00,
2013-10-12 09:36:00,53.8,43.9,30.17,WNW,291,2.0,5.0,69,0.00,,,0.00,248,Wunderground v.1.15,2013-10-12 14:36:00,
2013-10-12 09:37:00,53.9,44.0,30.17,WNW,289,2.0,6.0,69,0.00,,,0.00,299,Wunderground v.1.15,2013-10-12 14:37:00,
2013-10-12 09:38:00,54.0,44.1,30.17,WNW,290,2.0,6.0,69,0.00,,,0.00,234,Wunderground v.1.15,2013-10-12 14:38:00,
2013-10-12 09:41:00,54.3,43.6,30.16,WNW,298,2.0,2.0,67,0.00,,,0.00,227,Wunderground v.1.15,2013-10-12 14:41:00,
2013-10-12 09:42:00,54.4,43.7,30.17,WNW,296,3.0,3.0,67,0.00,,,0.00,84,Wunderground v.1.15,2013-10-12 14:42:00,
2013-10-12 09:44:00,54.6,43.5,30.17,WNW,301,3.0,7.0,66,0.00,,,0.00,69,Wunderground v.1.15,2013-10-12 14:44:00,
2013-10-12 09:49:00,55.0,43.4,30.17,NW,321,4.0,7.0,65,0.00,,,0.00,46,Wunderground v.1.15,2013-10-12 14:49:00,
2013-10-12 09:50:00,55.1,43.5,30.17,WNW,298,4.0,4.0,65,0.00,,,0.00,44,Wunderground v.1.15,2013-10-12 14:50:00,
2013-10-12 09:51:00,55.1,43.1,30.17,WNW,294,4.0,4.0,64,0.00,,,0.00,46,Wunderground v.1.15,2013-10-12 14:51:00,
2013-10-12 09:54:00,55.4,43.8,30.17,WNW,286,4.0,4.0,65,0.00,,,0.00,46,Wunderground v.1.15,2013-10-12 14:54:00,
2013-10-12 09:55:00,55.5,43.9,30.17,WNW,294,4.0,7.0,65,0.00,,,0.00,49,Wunderground v.1.15,2013-10-12 14:55:00,
2013-10-12 09:56:00,55.5,43.5,30.17,WSW,250,4.0,7.0,64,0.00,,,0.00,51,Wunderground v.1.15,2013-10-12 14:56:00,
2013-10-12 09:58:00,55.7,43.3,30.17,West,277,3.0,7.0,63,0.00,,,0.00,70,Wunderground v.1.15,2013-10-12 14:58:00,
2013-10-12 10:00:00,55.8,43.4,30.17,WNW,294,3.0,4.0,63,0.00,,,0.00,81,Wunderground v.1.15,2013-10-12 15:00:00,
2013-10-12 10:02:00,55.9,43.1,30.17,WNW,300,4.0,8.0,62,0.00,,,0.00,179,Wunderground v.1.15,2013-10-12 15:02:00,
2013-10-12 10:03:00,56.0,43.2,30.17,WNW,298,3.0,8.0,62,0.00,,,0.00,91,Wunderground v.1.15,2013-10-12 15:03:00,
2013-10-12 10:07:00,56.3,43.4,30.17,WNW,298,3.0,8.0,62,0.00,,,0.00,371,Wunderground v.1.15,2013-10-12 15:07:00,
2013-10-12 10:08:00,56.4,43.5,30.17,WNW,291,3.0,8.0,62,0.00,,,0.00,450,Wunderground v.1.15,2013-10-12 15:08:00,
2013-10-12 10:09:00,56.4,43.1,30.17,West,275,3.0,8.0,61,0.00,,,0.00,457,Wunderground v.1.15,2013-10-12 15:09:00,
2013-10-12 10:10:00,56.4,43.1,30.18,SW,225,3.0,3.0,61,0.00,,,0.00,461,Wunderground v.1.15,2013-10-12 15:10:00,
2013-10-12 10:11:00,56.5,42.8,30.17,West,259,3.0,3.0,60,0.00,,,0.00,462,Wunderground v.1.15,2013-10-12 15:11:00,
2013-10-12 10:14:00,56.8,43.1,30.18,SW,233,3.0,7.0,60,0.00,,,0.00,468,Wunderground v.1.15,2013-10-12 15:14:00,
2013-10-12 10:16:00,56.9,43.2,30.18,SW,228,3.0,7.0,60,0.00,,,0.00,475,Wunderground v.1.15,2013-10-12 15:16:00,
2013-10-12 10:17:00,57.0,43.2,30.18,WNW,286,3.0,7.0,60,0.00,,,0.00,475,Wunderground v.1.15,2013-10-12 15:17:00,
2013-10-12 10:19:00,57.1,42.5,30.18,WNW,289,3.0,7.0,58,0.00,,,0.00,480,Wunderground v.1.15,2013-10-12 15:19:00,
2013-10-12 10:21:00,57.2,42.5,30.18,WNW,293,3.0,6.0,58,0.00,,,0.00,485,Wunderground v.1.15,2013-10-12 15:21:00,
2013-10-12 10:22:00,57.2,43.0,30.18,WSW,238,3.0,6.0,59,0.00,,,0.00,487,Wunderground v.1.15,2013-10-12 15:22:00,
2013-10-12 10:24:00,57.4,43.2,30.18,WSW,241,3.0,6.0,59,0.00,,,0.00,490,Wunderground v.1.15,2013-10-12 15:24:00,
2013-10-12 10:25:00,57.5,43.3,30.18,WSW,242,3.0,6.0,59,0.00,,,0.00,492,Wunderground v.1.15,2013-10-12 15:25:00,
2013-10-12 10:26:00,57.6,43.4,30.18,WNW,285,3.0,6.0,59,0.00,,,0.00,496,Wunderground v.1.15,2013-10-12 15:26:00,
2013-10-12 10:28:00,57.7,43.0,30.18,WNW,302,3.0,6.0,58,0.00,,,0.00,499,Wunderground v.1.15,2013-10-12 15:28:00,
2013-10-12 10:30:00,57.8,42.7,30.18,WSW,246,3.0,4.0,57,0.00,,,0.00,503,Wunderground v.1.15,2013-10-12 15:30:00,
2013-10-12 10:33:00,58.0,42.4,30.18,West,278,3.0,4.0,56,0.00,,,0.00,512,Wunderground v.1.15,2013-10-12 15:33:00,
2013-10-12 10:34:00,58.1,42.9,30.18,WNW,298,3.0,4.0,57,0.00,,,0.00,515,Wunderground v.1.15,2013-10-12 15:34:00,
2013-10-12 10:36:00,58.2,42.6,30.18,WNW,287,4.0,6.0,56,0.00,,,0.00,517,Wunderground v.1.15,2013-10-12 15:36:00,
2013-10-12 10:38:00,58.3,42.7,30.18,WNW,290,4.0,6.0,56,0.00,,,0.00,520,Wunderground v.1.15,2013-10-12 15:38:00,
2013-10-12 10:39:00,58.3,43.1,30.18,WNW,290,4.0,6.0,57,0.00,,,0.00,522,Wunderground v.1.15,2013-10-12 15:39:00,
2013-10-12 10:40:00,58.4,42.8,30.18,WNW,284,4.0,6.0,56,0.00,,,0.00,526,Wunderground v.1.15,2013-10-12 15:40:00,
2013-10-12 10:43:00,58.5,42.8,30.18,WSW,242,4.0,7.0,56,0.00,,,0.00,533,Wunderground v.1.15,2013-10-12 15:43:00,
2013-10-12 10:45:00,58.7,42.6,30.19,WNW,293,4.0,7.0,55,0.00,,,0.00,536,Wunderground v.1.15,2013-10-12 15:45:00,
2013-10-12 10:47:00,58.7,42.1,30.18,WSW,238,4.0,7.0,54,0.00,,,0.00,543,Wunderground v.1.15,2013-10-12 15:47:00,
2013-10-12 10:49:00,58.8,42.2,30.18,WNW,296,4.0,7.0,54,0.00,,,0.00,545,Wunderground v.1.15,2013-10-12 15:49:00,
2013-10-12 10:50:00,58.8,41.7,30.18,WNW,290,4.0,4.0,53,0.00,,,0.00,548,Wunderground v.1.15,2013-10-12 15:50:00,
2013-10-12 10:51:00,58.9,41.8,30.18,WNW,287,4.0,9.0,53,0.00,,,0.00,550,Wunderground v.1.15,2013-10-12 15:51:00,
2013-10-12 10:54:00,58.9,41.3,30.18,WNW,300,6.0,14.0,52,0.00,,,0.00,554,Wunderground v.1.15,2013-10-12 15:54:00,
2013-10-12 10:55:00,58.8,41.2,30.18,WNW,296,6.0,14.0,52,0.00,,,0.00,557,Wunderground v.1.15,2013-10-12 15:55:00,
2013-10-12 10:56:00,58.9,42.3,30.18,WNW,296,6.0,14.0,54,0.00,,,0.00,557,Wunderground v.1.15,2013-10-12 15:56:00,
2013-10-12 10:57:00,58.9,42.3,30.18,WNW,286,7.0,14.0,54,0.00,,,0.00,561,Wunderground v.1.15,2013-10-12 15:57:00,
2013-10-12 10:58:00,58.9,41.8,30.18,WSW,254,7.0,14.0,53,0.00,,,0.00,564,Wunderground v.1.15,2013-10-12 15:58:00,
2013-10-12 11:00:00,58.9,41.3,30.18,WNW,294,7.0,7.0,52,0.00,,,0.00,557,Wunderground v.1.15,2013-10-12 16:00:00,
2013-10-12 11:04:00,59.0,41.9,30.18,WNW,286,6.0,10.0,53,0.00,,,0.00,492,Wunderground v.1.15,2013-10-12 16:04:00,
2013-10-12 11:06:00,59.0,41.9,30.18,WNW,292,6.0,10.0,53,0.00,,,0.00,462,Wunderground v.1.15,2013-10-12 16:06:00,
2013-10-12 11:07:00,59.0,41.9,30.18,WNW,288,6.0,10.0,53,0.00,,,0.00,448,Wunderground v.1.15,2013-10-12 16:07:00,
2013-10-12 11:11:00,59.2,41.6,30.19,West,280,6.0,9.0,52,0.00,,,0.00,464,Wunderground v.1.15,2013-10-12 16:11:00,
2013-10-12 11:13:00,59.3,42.6,30.18,WNW,295,6.0,9.0,54,0.00,,,0.00,520,Wunderground v.1.15,2013-10-12 16:13:00,
2013-10-12 11:15:00,59.4,42.3,30.19,WNW,284,6.0,9.0,53,0.00,,,0.00,559,Wunderground v.1.15,2013-10-12 16:15:00,
2013-10-12 11:19:00,59.8,42.1,30.19,WNW,292,5.0,9.0,52,0.00,,,0.00,596,Wunderground v.1.15,2013-10-12 16:19:00,
2013-10-12 11:20:00,59.9,42.2,30.19,WNW,284,5.0,5.0,52,0.00,,,0.00,598,Wunderground v.1.15,2013-10-12 16:20:00,
2013-10-12 11:21:00,59.9,42.2,30.19,WNW,295,5.0,6.0,52,0.00,,,0.00,599,Wunderground v.1.15,2013-10-12 16:21:00,
2013-10-12 11:22:00,60.0,42.3,30.19,West,279,5.0,6.0,52,0.00,,,0.00,601,Wunderground v.1.15,2013-10-12 16:22:00,
2013-10-12 11:24:00,60.2,43.0,30.19,WNW,298,5.0,6.0,53,0.00,,,0.00,531,Wunderground v.1.15,2013-10-12 16:24:00,
2013-10-12 11:25:00,60.4,42.2,30.19,WSW,238,5.0,6.0,51,0.00,,,0.00,473,Wunderground v.1.15,2013-10-12 16:25:00,
2013-10-12 11:28:00,60.7,41.4,30.19,West,276,5.0,6.0,49,0.00,,,0.00,373,Wunderground v.1.15,2013-10-12 16:28:00,
2013-10-12 11:30:00,60.8,41.5,30.19,WNW,302,5.0,5.0,49,0.00,,,0.00,390,Wunderground v.1.15,2013-10-12 16:30:00,
2013-10-12 11:31:00,60.9,41.6,30.19,WNW,283,5.0,5.0,49,0.00,,,0.00,350,Wunderground v.1.15,2013-10-12 16:31:00,
2013-10-12 11:35:00,61.1,41.2,30.19,West,281,5.0,11.0,48,0.00,,,0.00,388,Wunderground v.1.15,2013-10-12 16:35:00,
2013-10-12 11:36:00,61.1,41.2,30.18,WNW,284,5.0,11.0,48,0.00,,,0.00,392,Wunderground v.1.15,2013-10-12 16:36:00,
2013-10-12 11:38:00,61.2,41.3,30.19,WNW,291,6.0,11.0,48,0.00,,,0.00,624,Wunderground v.1.15,2013-10-12 16:38:00,
2013-10-12 11:39:00,61.2,41.3,30.19,West,269,6.0,11.0,48,0.00,,,0.00,626,Wunderground v.1.15,2013-10-12 16:39:00,
2013-10-12 11:40:00,61.3,42.0,30.19,West,280,6.0,6.0,49,0.00,,,0.00,624,Wunderground v.1.15,2013-10-12 16:40:00,
2013-10-12 11:41:00,61.3,41.4,30.19,WSW,252,6.0,6.0,48,0.00,,,0.00,622,Wunderground v.1.15,2013-10-12 16:41:00,
2013-10-12 11:42:00,61.4,41.5,30.19,WNW,294,7.0,9.0,48,0.00,,,0.00,619,Wunderground v.1.15,2013-10-12 16:42:00,
2013-10-12 11:43:00,61.4,41.5,30.19,WNW,287,7.0,9.0,48,0.00,,,0.00,617,Wunderground v.1.15,2013-10-12 16:43:00,
2013-10-12 11:45:00,61.4,41.5,30.19,WNW,286,7.0,9.0,48,0.00,,,0.00,582,Wunderground v.1.15,2013-10-12 16:45:00,
2013-10-12 11:47:00,61.5,42.2,30.19,WNW,288,7.0,9.0,49,0.00,,,0.00,571,Wunderground v.1.15,2013-10-12 16:47:00,
2013-10-12 11:49:00,61.6,41.7,30.19,WNW,294,6.0,9.0,48,0.00,,,0.00,548,Wunderground v.1.15,2013-10-12 16:49:00,
2013-10-12 11:50:00,61.7,41.8,30.19,WSW,242,6.0,6.0,48,0.00,,,0.00,524,Wunderground v.1.15,2013-10-12 16:50:00,
2013-10-12 11:51:00,61.8,41.3,30.19,WSW,238,6.0,6.0,47,0.00,,,0.00,513,Wunderground v.1.15,2013-10-12 16:51:00,
2013-10-12 11:54:00,62.1,40.5,30.19,NW,309,5.0,12.0,45,0.00,,,0.00,487,Wunderground v.1.15,2013-10-12 16:54:00,
2013-10-12 11:55:00,62.1,40.5,30.19,WNW,286,6.0,12.0,45,0.00,,,0.00,478,Wunderground v.1.15,2013-10-12 16:55:00,
2013-10-12 11:57:00,62.2,40.6,30.19,West,271,6.0,12.0,45,0.00,,,0.00,478,Wunderground v.1.15,2013-10-12 16:57:00,
2013-10-12 12:00:00,62.3,41.2,30.19,WNW,287,6.0,6.0,46,0.00,,,0.00,490,Wunderground v.1.15,2013-10-12 17:00:00,
2013-10-12 12:01:00,62.3,41.2,30.19,WNW,285,6.0,14.0,46,0.00,,,0.00,506,Wunderground v.1.15,2013-10-12 17:01:00,
2013-10-12 12:02:00,62.4,40.8,30.19,West,271,6.0,14.0,45,0.00,,,0.00,520,Wunderground v.1.15,2013-10-12 17:02:00,
2013-10-12 12:04:00,62.4,40.8,30.19,WNW,290,7.0,14.0,45,0.00,,,0.00,520,Wunderground v.1.15,2013-10-12 17:04:00,
2013-10-12 12:05:00,62.4,41.3,30.19,NW,312,7.0,14.0,46,0.00,,,0.00,568,Wunderground v.1.15,2013-10-12 17:05:00,
2013-10-12 12:09:00,62.4,41.9,30.19,WNW,292,8.0,14.0,47,0.00,,,0.00,615,Wunderground v.1.15,2013-10-12 17:09:00,
2013-10-12 12:11:00,62.6,40.9,30.19,West,273,7.0,8.0,45,0.00,,,0.00,633,Wunderground v.1.15,2013-10-12 17:11:00,
2013-10-12 12:12:00,62.7,41.6,30.19,WSW,256,7.0,8.0,46,0.00,,,0.00,649,Wunderground v.1.15,2013-10-12 17:12:00,
2013-10-12 12:13:00,62.8,41.1,30.19,WNW,286,6.0,8.0,45,0.00,,,0.00,656,Wunderground v.1.15,2013-10-12 17:13:00,
2013-10-12 12:15:00,62.8,41.1,30.19,WNW,294,6.0,11.0,45,0.00,,,0.00,661,Wunderground v.1.15,2013-10-12 17:15:00,
2013-10-12 12:18:00,63.0,40.7,30.19,WNW,289,5.0,11.0,44,0.00,,,0.00,663,Wunderground v.1.15,2013-10-12 17:18:00,
2013-10-12 12:19:00,63.0,41.3,30.19,West,276,5.0,11.0,45,0.00,,,0.00,664,Wunderground v.1.15,2013-10-12 17:19:00,
2013-10-12 12:23:00,63.2,39.7,30.20,SW,230,6.0,6.0,42,0.00,,,0.00,670,Wunderground v.1.15,2013-10-12 17:23:00,
2013-10-12 12:24:00,63.2,39.7,30.20,SW,225,5.0,6.0,42,0.00,,,0.00,670,Wunderground v.1.15,2013-10-12 17:24:00,
2013-10-12 12:26:00,63.2,39.7,30.20,West,276,5.0,6.0,42,0.00,,,0.00,670,Wunderground v.1.15,2013-10-12 17:26:00,
2013-10-12 12:27:00,63.3,40.4,30.20,WNW,288,5.0,6.0,43,0.00,,,0.00,671,Wunderground v.1.15,2013-10-12 17:27:00,
2013-10-12 12:28:00,63.3,40.4,30.20,WNW,296,5.0,6.0,43,0.00,,,0.00,668,Wunderground v.1.15,2013-10-12 17:28:00,
2013-10-12 12:29:00,63.3,41.0,30.20,WNW,287,5.0,9.0,44,0.00,,,0.00,670,Wunderground v.1.15,2013-10-12 17:29:00,
2013-10-12 12:31:00,63.4,40.5,30.20,WNW,303,5.0,6.0,43,0.00,,,0.00,671,Wunderground v.1.15,2013-10-12 17:31:00,
2013-10-12 12:32:00,63.4,41.1,30.20,West,274,5.0,6.0,44,0.00,,,0.00,671,Wunderground v.1.15,2013-10-12 17:32:00,
2013-10-12 12:33:00,63.4,41.7,30.20,WNW,286,5.0,8.0,45,0.00,,,0.00,671,Wunderground v.1.15,2013-10-12 17:33:00,
2013-10-12 12:34:00,63.5,41.2,30.20,WNW,287,5.0,8.0,44,0.00,,,0.00,675,Wunderground v.1.15,2013-10-12 17:34:00,
2013-10-12 12:36:00,63.5,40.6,30.20,WNW,294,5.0,8.0,43,0.00,,,0.00,673,Wunderground v.1.15,2013-10-12 17:36:00,
2013-10-12 12:37:00,63.5,40.6,30.20,WNW,282,5.0,8.0,43,0.00,,,0.00,673,Wunderground v.1.15,2013-10-12 17:37:00,
2013-10-12 12:40:00,63.6,40.1,30.20,WNW,297,5.0,5.0,42,0.00,,,0.00,673,Wunderground v.1.15,2013-10-12 17:40:00,
2013-10-12 12:41:00,63.6,40.7,30.20,NW,312,5.0,6.0,43,0.00,,,0.00,520,Wunderground v.1.15,2013-10-12 17:41:00,
2013-10-12 12:42:00,63.7,40.8,30.20,West,263,5.0,6.0,43,0.00,,,0.00,570,Wunderground v.1.15,2013-10-12 17:42:00,
2013-10-12 12:45:00,63.7,40.2,30.20,WNW,287,5.0,6.0,42,0.00,,,0.00,573,Wunderground v.1.15,2013-10-12 17:45:00,
2013-10-12 12:46:00,63.8,40.9,30.20,West,279,5.0,10.0,43,0.00,,,0.00,664,Wunderground v.1.15,2013-10-12 17:46:00,
2013-10-12 12:47:00,63.8,40.9,30.20,WNW,288,5.0,10.0,43,0.00,,,0.00,666,Wunderground v.1.15,2013-10-12 17:47:00,
2013-10-12 12:48:00,63.9,41.0,30.20,West,273,5.0,10.0,43,0.00,,,0.00,666,Wunderground v.1.15,2013-10-12 17:48:00,
2013-10-12 12:49:00,63.9,41.0,30.20,West,280,5.0,10.0,43,0.00,,,0.00,675,Wunderground v.1.15,2013-10-12 17:49:00,
2013-10-12 12:51:00,63.9,41.0,30.20,NW,314,5.0,5.0,43,0.00,,,0.00,673,Wunderground v.1.15,2013-10-12 17:51:00,
2013-10-12 12:52:00,63.9,41.0,30.20,WNW,283,5.0,5.0,43,0.00,,,0.00,673,Wunderground v.1.15,2013-10-12 17:52:00,
2013-10-12 12:53:00,64.0,41.0,30.20,West,281,5.0,5.0,43,0.00,,,0.00,671,Wunderground v.1.15,2013-10-12 17:53:00,
2013-10-12 12:54:00,64.0,40.4,30.20,WNW,284,5.0,8.0,42,0.00,,,0.00,671,Wunderground v.1.15,2013-10-12 17:54:00,
2013-10-12 12:57:00,64.1,40.5,30.20,SW,230,5.0,8.0,42,0.00,,,0.00,675,Wunderground v.1.15,2013-10-12 17:57:00,
2013-10-12 12:58:00,64.2,40.6,30.20,WSW,255,4.0,8.0,42,0.00,,,0.00,673,Wunderground v.1.15,2013-10-12 17:58:00,
2013-10-12 13:00:00,64.3,41.3,30.20,WNW,292,4.0,9.0,43,0.00,,,0.00,673,Wunderground v.1.15,2013-10-12 18:00:00,
2013-10-12 13:05:00,64.4,40.8,30.20,WNW,290,5.0,18.0,42,0.00,,,0.00,671,Wunderground v.1.15,2013-10-12 18:05:00,
2013-10-12 13:07:00,64.4,39.5,30.20,WNW,286,6.0,18.0,40,0.00,,,0.00,671,Wunderground v.1.15,2013-10-12 18:07:00,
2013-10-12 13:08:00,64.4,39.5,30.20,West,275,7.0,18.0,40,0.00,,,0.00,670,Wunderground v.1.15,2013-10-12 18:08:00,
2013-10-12 13:09:00,64.4,40.2,30.20,West,268,7.0,18.0,41,0.00,,,0.00,671,Wunderground v.1.15,2013-10-12 18:09:00,
2013-10-12 13:11:00,64.4,39.5,30.20,WNW,294,7.0,7.0,40,0.00,,,0.00,673,Wunderground v.1.15,2013-10-12 18:11:00,
2013-10-12 13:13:00,64.6,39.7,30.20,NW,304,6.0,7.0,40,0.00,,,0.00,668,Wunderground v.1.15,2013-10-12 18:13:00,
2013-10-12 13:15:00,64.7,39.2,30.20,WNW,287,6.0,7.0,39,0.00,,,0.00,663,Wunderground v.1.15,2013-10-12 18:15:00,
2013-10-12 13:17:00,64.8,39.9,30.20,WSW,239,5.0,7.0,40,0.00,,,0.00,666,Wunderground v.1.15,2013-10-12 18:17:00,
2013-10-12 13:19:00,64.8,39.2,30.20,WNW,300,5.0,7.0,39,0.00,,,0.00,666,Wunderground v.1.15,2013-10-12 18:19:00,
2013-10-12 13:20:00,64.9,40.0,30.20,WSW,250,4.0,4.0,40,0.00,,,0.00,668,Wunderground v.1.15,2013-10-12 18:20:00,
2013-10-12 13:21:00,64.9,40.0,30.20,West,265,5.0,8.0,40,0.00,,,0.00,668,Wunderground v.1.15,2013-10-12 18:21:00,
2013-10-12 13:22:00,64.9,39.3,30.20,WNW,290,5.0,8.0,39,0.00,,,0.00,666,Wunderground v.1.15,2013-10-12 18:22:00,
2013-10-12 13:23:00,64.9,39.3,30.20,West,277,5.0,8.0,39,0.00,,,0.00,668,Wunderground v.1.15,2013-10-12 18:23:00,
2013-10-12 13:27:00,64.9,39.3,30.20,WNW,290,6.0,8.0,39,0.00,,,0.00,666,Wunderground v.1.15,2013-10-12 18:27:00,
2013-10-12 13:28:00,64.9,39.3,30.20,West,278,6.0,8.0,39,0.00,,,0.00,664,Wunderground v.1.15,2013-10-12 18:28:00,
2013-10-12 13:29:00,64.9,39.3,30.20,WNW,283,5.0,8.0,39,0.00,,,0.00,663,Wunderground v.1.15,2013-10-12 18:29:00,
2013-10-12 13:31:00,65.0,39.4,30.20,WNW,300,6.0,6.0,39,0.00,,,0.00,661,Wunderground v.1.15,2013-10-12 18:31:00,
2013-10-12 13:34:00,65.1,38.8,30.20,WNW,295,5.0,6.0,38,0.00,,,0.00,661,Wunderground v.1.15,2013-10-12 18:34:00,
2013-10-12 13:35:00,65.1,38.8,30.20,WNW,285,5.0,6.0,38,0.00,,,0.00,659,Wunderground v.1.15,2013-10-12 18:35:00,
2013-10-12 13:36:00,65.2,39.6,30.20,SW,219,4.0,9.0,39,0.00,,,0.00,661,Wunderground v.1.15,2013-10-12 18:36:00,
2013-10-12 13:37:00,65.2,38.9,30.20,SSW,199,4.0,9.0,38,0.00,,,0.00,659,Wunderground v.1.15,2013-10-12 18:37:00,
2013-10-12 13:38:00,65.2,38.9,30.20,WSW,258,5.0,9.0,38,0.00,,,0.00,657,Wunderground v.1.15,2013-10-12 18:38:00,
2013-10-12 13:41:00,65.2,38.9,30.20,WNW,291,4.0,12.0,38,0.00,,,0.00,656,Wunderground v.1.15,2013-10-12 18:41:00,
2013-10-12 13:44:00,65.1,38.8,30.20,WNW,297,5.0,12.0,38,0.00,,,0.00,654,Wunderground v.1.15,2013-10-12 18:44:00,
2013-10-12 13:47:00,65.1,38.8,30.20,WSW,249,5.0,12.0,38,0.00,,,0.00,649,Wunderground v.1.15,2013-10-12 18:47:00,
2013-10-12 13:49:00,65.2,38.9,30.20,NW,316,5.0,12.0,38,0.00,,,0.00,649,Wunderground v.1.15,2013-10-12 18:49:00,
2013-10-12 13:50:00,65.2,38.9,30.20,WNW,290,6.0,6.0,38,0.00,,,0.00,650,Wunderground v.1.15,2013-10-12 18:50:00,
2013-10-12 13:54:00,65.3,38.3,30.20,WNW,286,5.0,7.0,37,0.00,,,0.00,645,Wunderground v.1.15,2013-10-12 18:54:00,
2013-10-12 13:55:00,65.4,39.1,30.20,WNW,294,5.0,7.0,38,0.00,,,0.00,642,Wunderground v.1.15,2013-10-12 18:55:00,
2013-10-12 13:57:00,65.4,38.4,30.20,WNW,284,5.0,11.0,37,0.00,,,0.00,642,Wunderground v.1.15,2013-10-12 18:57:00,
2013-10-12 13:58:00,65.5,38.5,30.20,WNW,287,5.0,11.0,37,0.00,,,0.00,640,Wunderground v.1.15,2013-10-12 18:58:00,
2013-10-12 14:00:00,65.7,38.7,30.20,WNW,292,5.0,12.0,37,0.00,,,0.00,642,Wunderground v.1.15,2013-10-12 19:00:00,
2013-10-12 14:01:00,65.7,38.0,30.20,WNW,288,5.0,17.0,36,0.00,,,0.00,640,Wunderground v.1.15,2013-10-12 19:01:00,
2013-10-12 14:03:00,65.8,39.5,30.20,WNW,286,4.0,17.0,38,0.00,,,0.00,636,Wunderground v.1.15,2013-10-12 19:03:00,
2013-10-12 14:05:00,65.9,38.9,30.20,WNW,290,4.0,17.0,37,0.00,,,0.00,635,Wunderground v.1.15,2013-10-12 19:05:00,
2013-10-12 14:07:00,65.9,38.9,30.20,WNW,288,4.0,17.0,37,0.00,,,0.00,631,Wunderground v.1.15,2013-10-12 19:07:00,
2013-10-12 14:08:00,65.9,38.2,30.20,West,269,4.0,17.0,36,0.00,,,0.00,631,Wunderground v.1.15,2013-10-12 19:08:00,
2013-10-12 14:11:00,66.0,39.0,30.20,SW,225,4.0,7.0,37,0.00,,,0.00,619,Wunderground v.1.15,2013-10-12 19:11:00,
2013-10-12 14:12:00,66.0,38.3,30.20,WNW,290,4.0,7.0,36,0.00,,,0.00,626,Wunderground v.1.15,2013-10-12 19:12:00,
2013-10-12 14:13:00,66.1,38.4,30.20,WSW,240,4.0,7.0,36,0.00,,,0.00,624,Wunderground v.1.15,2013-10-12 19:13:00,
2013-10-12 14:14:00,66.1,37.6,30.20,WSW,245,4.0,7.0,35,0.00,,,0.00,619,Wunderground v.1.15,2013-10-12 19:14:00,
2013-10-12 14:16:00,66.2,37.7,30.20,WSW,252,4.0,7.0,35,0.00,,,0.00,621,Wunderground v.1.15,2013-10-12 19:16:00,
2013-10-12 14:19:00,66.2,37.7,30.20,WNW,286,4.0,7.0,35,0.00,,,0.00,619,Wunderground v.1.15,2013-10-12 19:19:00,
2013-10-12 14:21:00,66.3,37.8,30.20,WSW,254,4.0,4.0,35,0.00,,,0.00,613,Wunderground v.1.15,2013-10-12 19:21:00,
2013-10-12 14:22:00,66.3,37.8,30.20,WNW,302,4.0,13.0,35,0.00,,,0.00,613,Wunderground v.1.15,2013-10-12 19:22:00,
2013-10-12 14:24:00,66.3,38.5,30.20,WNW,293,5.0,13.0,36,0.00,,,0.00,612,Wunderground v.1.15,2013-10-12 19:24:00,
2013-10-12 14:26:00,66.3,37.8,30.20,West,277,5.0,13.0,35,0.00,,,0.00,606,Wunderground v.1.15,2013-10-12 19:26:00,
2013-10-12 14:28:00,66.4,37.9,30.20,WNW,287,5.0,13.0,35,0.00,,,0.00,605,Wunderground v.1.15,2013-10-12 19:28:00,
2013-10-12 14:29:00,66.5,38.0,30.20,West,266,4.0,13.0,35,0.00,,,0.00,605,Wunderground v.1.15,2013-10-12 19:29:00,
2013-10-12 14:31:00,66.5,38.0,30.20,West,274,4.0,9.0,35,0.00,,,0.00,605,Wunderground v.1.15,2013-10-12 19:31:00,
2013-10-12 14:32:00,66.5,36.5,30.20,NW,309,5.0,9.0,33,0.00,,,0.00,599,Wunderground v.1.15,2013-10-12 19:32:00,
2013-10-12 14:34:00,66.5,37.2,30.19,West,259,5.0,9.0,34,0.00,,,0.00,591,Wunderground v.1.15,2013-10-12 19:34:00,
2013-10-12 14:36:00,66.5,37.2,30.20,West,264,5.0,9.0,34,0.00,,,0.00,587,Wunderground v.1.15,2013-10-12 19:36:00,
2013-10-12 14:38:00,66.5,36.5,30.20,SW,216,6.0,9.0,33,0.00,,,0.00,585,Wunderground v.1.15,2013-10-12 19:38:00,
2013-10-12 14:39:00,66.4,36.4,30.20,West,281,6.0,9.0,33,0.00,,,0.00,585,Wunderground v.1.15,2013-10-12 19:39:00,
2013-10-12 14:41:00,66.4,36.4,30.20,SW,227,6.0,7.0,33,0.00,,,0.00,580,Wunderground v.1.15,2013-10-12 19:41:00,
2013-10-12 14:42:00,66.4,36.4,30.20,West,265,5.0,7.0,33,0.00,,,0.00,582,Wunderground v.1.15,2013-10-12 19:42:00,
2013-10-12 14:43:00,66.4,36.4,30.20,West,271,5.0,7.0,33,0.00,,,0.00,573,Wunderground v.1.15,2013-10-12 19:43:00,
2013-10-12 14:45:00,66.4,37.2,30.20,NW,310,5.0,7.0,34,0.00,,,0.00,520,Wunderground v.1.15,2013-10-12 19:45:00,
2013-10-12 14:47:00,66.5,38.0,30.20,WNW,297,5.0,7.0,35,0.00,,,0.00,480,Wunderground v.1.15,2013-10-12 19:47:00,
2013-10-12 14:50:00,66.6,36.6,30.20,West,263,4.0,4.0,33,0.00,,,0.00,503,Wunderground v.1.15,2013-10-12 19:50:00,
2013-10-12 14:52:00,66.6,36.6,30.20,WNW,284,4.0,6.0,33,0.00,,,0.00,563,Wunderground v.1.15,2013-10-12 19:52:00,
2013-10-12 14:53:00,66.7,36.7,30.20,SSW,200,4.0,6.0,33,0.00,,,0.00,557,Wunderground v.1.15,2013-10-12 19:53:00,
2013-10-12 14:54:00,66.7,36.7,30.20,WSW,238,4.0,6.0,33,0.00,,,0.00,554,Wunderground v.1.15,2013-10-12 19:54:00,
2013-10-12 14:57:00,66.8,37.5,30.20,West,263,4.0,6.0,34,0.00,,,0.00,555,Wunderground v.1.15,2013-10-12 19:57:00,
2013-10-12 14:58:00,66.8,37.5,30.20,SW,229,3.0,6.0,34,0.00,,,0.00,547,Wunderground v.1.15,2013-10-12 19:58:00,
2013-10-12 14:59:00,66.8,36.8,30.20,WNW,286,3.0,4.0,33,0.00,,,0.00,550,Wunderground v.1.15,2013-10-12 19:59:00,
2013-10-12 15:02:00,66.9,36.8,30.20,WNW,303,3.0,15.0,33,0.00,,,0.00,547,Wunderground v.1.15,2013-10-12 20:02:00,
2013-10-12 15:03:00,66.9,37.6,30.20,WNW,295,4.0,15.0,34,0.00,,,0.00,541,Wunderground v.1.15,2013-10-12 20:03:00,
2013-10-12 15:06:00,66.9,37.6,30.20,SW,223,4.0,15.0,34,0.00,,,0.00,540,Wunderground v.1.15,2013-10-12 20:06:00,
2013-10-12 15:07:00,66.9,36.8,30.20,SW,217,5.0,15.0,33,0.00,,,0.00,536,Wunderground v.1.15,2013-10-12 20:07:00,
2013-10-12 15:08:00,66.9,36.1,30.20,SW,230,5.0,15.0,32,0.00,,,0.00,533,Wunderground v.1.15,2013-10-12 20:08:00,
2013-10-12 15:09:00,66.9,36.1,30.21,WSW,245,5.0,15.0,32,0.00,,,0.00,533,Wunderground v.1.15,2013-10-12 20:09:00,
2013-10-12 15:13:00,67.0,36.9,30.21,SW,232,5.0,6.0,33,0.00,,,0.00,527,Wunderground v.1.15,2013-10-12 20:13:00,
2013-10-12 15:15:00,67.0,36.9,30.21,West,259,5.0,7.0,33,0.00,,,0.00,524,Wunderground v.1.15,2013-10-12 20:15:00,
2013-10-12 15:16:00,67.0,36.1,30.21,WNW,293,5.0,7.0,32,0.00,,,0.00,522,Wunderground v.1.15,2013-10-12 20:16:00,
2013-10-12 15:18:00,66.9,36.8,30.21,WSW,238,4.0,7.0,33,0.00,,,0.00,515,Wunderground v.1.15,2013-10-12 20:18:00,
2013-10-12 15:19:00,66.9,36.8,30.21,WNW,300,4.0,7.0,33,0.00,,,0.00,512,Wunderground v.1.15,2013-10-12 20:19:00,
2013-10-12 15:20:00,66.9,36.1,30.21,WNW,296,5.0,8.0,32,0.00,,,0.00,510,Wunderground v.1.15,2013-10-12 20:20:00,
2013-10-12 15:24:00,66.8,36.0,30.21,WNW,302,6.0,13.0,32,0.00,,,0.00,501,Wunderground v.1.15,2013-10-12 20:24:00,
2013-10-12 15:25:00,66.7,35.9,30.21,NW,308,6.0,13.0,32,0.00,,,0.00,499,Wunderground v.1.15,2013-10-12 20:25:00,
2013-10-12 15:26:00,66.7,35.9,30.21,West,280,6.0,13.0,32,0.00,,,0.00,494,Wunderground v.1.15,2013-10-12 20:26:00,
2013-10-12 15:27:00,66.6,35.8,30.21,NW,311,7.0,13.0,32,0.00,,,0.00,494,Wunderground v.1.15,2013-10-12 20:27:00,
2013-10-12 15:29:00,66.5,36.5,30.21,WNW,283,7.0,13.0,33,0.00,,,0.00,490,Wunderground v.1.15,2013-10-12 20:29:00,
2013-10-12 15:30:00,66.5,37.2,30.21,WNW,300,7.0,7.0,34,0.00,,,0.00,492,Wunderground v.1.15,2013-10-12 20:30:00,
2013-10-12 15:34:00,66.6,38.1,30.21,NW,306,5.0,7.0,35,0.00,,,0.00,478,Wunderground v.1.15,2013-10-12 20:34:00,
2013-10-12 15:35:00,66.6,36.6,30.21,WSW,247,5.0,7.0,33,0.00,,,0.00,478,Wunderground v.1.15,2013-10-12 20:35:00,
2013-10-12 15:36:00,66.7,37.4,30.21,WNW,289,4.0,7.0,34,0.00,,,0.00,476,Wunderground v.1.15,2013-10-12 20:36:00,
2013-10-12 15:39:00,66.7,36.7,30.21,West,259,4.0,7.0,33,0.00,,,0.00,468,Wunderground v.1.15,2013-10-12 20:39:00,
2013-10-12 15:42:00,66.7,36.7,30.21,West,272,4.0,8.0,33,0.00,,,0.00,459,Wunderground v.1.15,2013-10-12 20:42:00,
2013-10-12 15:43:00,66.8,37.5,30.21,WNW,300,4.0,8.0,34,0.00,,,0.00,459,Wunderground v.1.15,2013-10-12 20:43:00,
2013-10-12 15:44:00,66.8,37.5,30.21,WNW,292,4.0,12.0,34,0.00,,,0.00,455,Wunderground v.1.15,2013-10-12 20:44:00,
2013-10-12 15:46:00,66.7,36.7,30.21,West,269,5.0,12.0,33,0.00,,,0.00,455,Wunderground v.1.15,2013-10-12 20:46:00,
2013-10-12 15:47:00,66.7,37.4,30.21,WSW,241,5.0,12.0,34,0.00,,,0.00,446,Wunderground v.1.15,2013-10-12 20:47:00,
2013-10-12 15:50:00,66.7,37.4,30.21,WNW,288,5.0,7.0,34,0.00,,,0.00,438,Wunderground v.1.15,2013-10-12 20:50:00,
2013-10-12 15:52:00,66.7,37.4,30.21,WNW,298,6.0,7.0,34,0.00,,,0.00,436,Wunderground v.1.15,2013-10-12 20:52:00,
2013-10-12 15:53:00,66.7,36.7,30.21,WSW,241,5.0,7.0,33,0.00,,,0.00,434,Wunderground v.1.15,2013-10-12 20:53:00,
2013-10-12 15:54:00,66.7,35.9,30.21,WSW,240,5.0,7.0,32,0.00,,,0.00,431,Wunderground v.1.15,2013-10-12 20:54:00,
2013-10-12 15:55:00,66.7,35.9,30.21,West,266,5.0,7.0,32,0.00,,,0.00,427,Wunderground v.1.15,2013-10-12 20:55:00,
2013-10-12 15:59:00,66.6,35.8,30.21,WNW,290,5.0,7.0,32,0.00,,,0.00,415,Wunderground v.1.15,2013-10-12 20:59:00,
2013-10-12 16:00:00,66.5,35.7,30.21,West,271,5.0,5.0,32,0.00,,,0.00,408,Wunderground v.1.15,2013-10-12 21:00:00,
2013-10-12 16:01:00,66.5,35.7,30.21,WNW,292,6.0,6.0,32,0.00,,,0.00,408,Wunderground v.1.15,2013-10-12 21:01:00,
2013-10-12 16:02:00,66.5,36.5,30.21,WNW,290,6.0,19.0,33,0.00,,,0.00,406,Wunderground v.1.15,2013-10-12 21:02:00,
2013-10-12 16:05:00,66.4,37.2,30.21,WNW,284,6.0,19.0,34,0.00,,,0.00,397,Wunderground v.1.15,2013-10-12 21:05:00,
2013-10-12 16:06:00,66.4,36.4,30.21,WNW,290,6.0,19.0,33,0.00,,,0.00,397,Wunderground v.1.15,2013-10-12 21:06:00,
2013-10-12 16:11:00,66.2,36.2,30.21,WNW,291,6.0,7.0,33,0.00,,,0.00,381,Wunderground v.1.15,2013-10-12 21:11:00,
2013-10-12 16:12:00,66.2,37.0,30.21,WNW,296,6.0,7.0,34,0.00,,,0.00,373,Wunderground v.1.15,2013-10-12 21:12:00,
2013-10-12 16:16:00,66.2,37.0,30.21,West,280,5.0,9.0,34,0.00,,,0.00,367,Wunderground v.1.15,2013-10-12 21:16:00,
2013-10-12 16:17:00,66.2,37.0,30.21,WNW,288,5.0,9.0,34,0.00,,,0.00,366,Wunderground v.1.15,2013-10-12 21:17:00,
2013-10-12 16:19:00,66.2,37.7,30.21,WNW,297,5.0,10.0,35,0.00,,,0.00,360,Wunderground v.1.15,2013-10-12 21:19:00,
2013-10-12 16:22:00,66.1,36.1,30.21,WNW,286,6.0,8.0,33,0.00,,,0.00,350,Wunderground v.1.15,2013-10-12 21:22:00,
2013-10-12 16:23:00,66.1,36.9,30.21,WNW,291,6.0,8.0,34,0.00,,,0.00,348,Wunderground v.1.15,2013-10-12 21:23:00,
2013-10-12 16:24:00,66.1,36.9,30.22,WNW,282,6.0,8.0,34,0.00,,,0.00,343,Wunderground v.1.15,2013-10-12 21:24:00,
2013-10-12 16:25:00,66.1,36.1,30.21,WNW,293,6.0,8.0,33,0.00,,,0.00,339,Wunderground v.1.15,2013-10-12 21:25:00,
2013-10-12 16:27:00,66.1,36.9,30.22,WNW,302,5.0,8.0,34,0.00,,,0.00,329,Wunderground v.1.15,2013-10-12 21:27:00,
2013-10-12 16:28:00,66.1,36.9,30.22,WNW,302,5.0,8.0,34,0.00,,,0.00,327,Wunderground v.1.15,2013-10-12 21:28:00,
2013-10-12 16:29:00,66.1,38.4,30.22,WNW,296,5.0,8.0,36,0.00,,,0.00,327,Wunderground v.1.15,2013-10-12 21:29:00,
2013-10-12 16:30:00,66.1,38.4,30.22,WNW,291,4.0,7.0,36,0.00,,,0.00,313,Wunderground v.1.15,2013-10-12 21:30:00,
2013-10-12 16:31:00,66.1,37.6,30.22,West,269,4.0,7.0,35,0.00,,,0.00,322,Wunderground v.1.15,2013-10-12 21:31:00,
2013-10-12 16:32:00,66.2,37.7,30.22,WSW,238,3.0,7.0,35,0.00,,,0.00,320,Wunderground v.1.15,2013-10-12 21:32:00,
2013-10-12 16:36:00,66.2,36.2,30.22,West,272,4.0,7.0,33,0.00,,,0.00,311,Wunderground v.1.15,2013-10-12 21:36:00,
2013-10-12 16:37:00,66.2,36.2,30.22,West,275,4.0,7.0,33,0.00,,,0.00,308,Wunderground v.1.15,2013-10-12 21:37:00,
2013-10-12 16:41:00,66.3,36.3,30.22,West,278,4.0,4.0,33,0.00,,,0.00,294,Wunderground v.1.15,2013-10-12 21:41:00,
2013-10-12 16:42:00,66.2,36.2,30.22,WSW,239,4.0,4.0,33,0.00,,,0.00,290,Wunderground v.1.15,2013-10-12 21:42:00,
2013-10-12 16:43:00,66.2,36.2,30.22,WSW,246,4.0,4.0,33,0.00,,,0.00,288,Wunderground v.1.15,2013-10-12 21:43:00,
2013-10-12 16:44:00,66.2,36.2,30.22,SW,228,4.0,4.0,33,0.00,,,0.00,287,Wunderground v.1.15,2013-10-12 21:44:00,
2013-10-12 16:47:00,66.1,36.9,30.22,West,272,3.0,5.0,34,0.00,,,0.00,274,Wunderground v.1.15,2013-10-12 21:47:00,
2013-10-12 16:49:00,66.1,36.1,30.22,WNW,295,3.0,8.0,33,0.00,,,0.00,267,Wunderground v.1.15,2013-10-12 21:49:00,
2013-10-12 16:50:00,66.1,36.1,30.22,WNW,282,3.0,5.0,33,0.00,,,0.00,264,Wunderground v.1.15,2013-10-12 21:50:00,
2013-10-12 16:52:00,66.1,36.1,30.22,WNW,293,4.0,8.0,33,0.00,,,0.00,258,Wunderground v.1.15,2013-10-12 21:52:00,
2013-10-12 16:57:00,65.9,36.0,30.22,WNW,294,5.0,8.0,33,0.00,,,0.00,239,Wunderground v.1.15,2013-10-12 21:57:00,
2013-10-12 16:58:00,65.9,36.0,30.22,WNW,288,6.0,8.0,33,0.00,,,0.00,236,Wunderground v.1.15,2013-10-12 21:58:00,
2013-10-12 17:00:00,65.9,36.0,30.22,NW,306,5.0,6.0,33,0.00,,,0.00,227,Wunderground v.1.15,2013-10-12 22:00:00,
2013-10-12 17:01:00,65.9,36.0,30.22,WNW,293,5.0,14.0,33,0.00,,,0.00,223,Wunderground v.1.15,2013-10-12 22:01:00,
2013-10-12 17:03:00,65.8,36.6,30.22,SW,233,4.0,14.0,34,0.00,,,0.00,216,Wunderground v.1.15,2013-10-12 22:03:00,
2013-10-12 17:05:00,65.8,35.9,30.22,SW,232,4.0,14.0,33,0.00,,,0.00,207,Wunderground v.1.15,2013-10-12 22:05:00,
2013-10-12 17:06:00,65.8,36.6,30.22,WSW,238,4.0,14.0,34,0.00,,,0.00,202,Wunderground v.1.15,2013-10-12 22:06:00,
2013-10-12 17:09:00,65.7,37.3,30.22,WNW,294,4.0,14.0,35,0.00,,,0.00,192,Wunderground v.1.15,2013-10-12 22:09:00,
2013-10-12 17:11:00,65.6,35.7,30.23,WSW,250,3.0,5.0,33,0.00,,,0.00,186,Wunderground v.1.15,2013-10-12 22:11:00,
2013-10-12 17:15:00,65.6,36.5,30.23,SW,225,3.0,6.0,34,0.00,,,0.00,172,Wunderground v.1.15,2013-10-12 22:15:00,
2013-10-12 17:16:00,65.6,36.5,30.23,SW,217,3.0,6.0,34,0.00,,,0.00,169,Wunderground v.1.15,2013-10-12 22:16:00,
2013-10-12 17:17:00,65.6,36.5,30.23,SW,235,3.0,6.0,34,0.00,,,0.00,158,Wunderground v.1.15,2013-10-12 22:17:00,
2013-10-12 17:19:00,65.6,36.5,30.23,WSW,252,3.0,6.0,34,0.00,,,0.00,158,Wunderground v.1.15,2013-10-12 22:19:00,
2013-10-12 17:21:00,65.6,35.7,30.23,SW,222,3.0,6.0,33,0.00,,,0.00,148,Wunderground v.1.15,2013-10-12 22:21:00,
2013-10-12 17:24:00,65.5,36.4,30.23,WSW,238,4.0,6.0,34,0.00,,,0.00,130,Wunderground v.1.15,2013-10-12 22:24:00,
2013-10-12 17:25:00,65.5,36.4,30.23,SW,232,4.0,6.0,34,0.00,,,0.00,118,Wunderground v.1.15,2013-10-12 22:25:00,
2013-10-12 17:26:00,65.4,35.5,30.23,SW,224,4.0,7.0,33,0.00,,,0.00,123,Wunderground v.1.15,2013-10-12 22:26:00,
2013-10-12 17:27:00,65.4,35.5,30.23,SW,234,5.0,7.0,33,0.00,,,0.00,125,Wunderground v.1.15,2013-10-12 22:27:00,
2013-10-12 17:30:00,65.3,36.2,30.23,SW,231,4.0,4.0,34,0.00,,,0.00,72,Wunderground v.1.15,2013-10-12 22:30:00,
2013-10-12 17:31:00,65.3,36.2,30.23,WSW,257,4.0,4.0,34,0.00,,,0.00,54,Wunderground v.1.15,2013-10-12 22:31:00,
2013-10-12 17:34:00,65.2,36.8,30.23,SW,229,3.0,4.0,35,0.00,,,0.00,47,Wunderground v.1.15,2013-10-12 22:34:00,
2013-10-12 17:35:00,65.2,36.8,30.23,SW,229,3.0,4.0,35,0.00,,,0.00,33,Wunderground v.1.15,2013-10-12 22:35:00,
2013-10-12 17:36:00,65.2,36.8,30.23,SW,235,3.0,4.0,35,0.00,,,0.00,30,Wunderground v.1.15,2013-10-12 22:36:00,
2013-10-12 17:37:00,65.1,36.8,30.23,SW,236,3.0,4.0,35,0.00,,,0.00,44,Wunderground v.1.15,2013-10-12 22:37:00,
2013-10-12 17:39:00,65.0,36.7,30.23,West,277,3.0,4.0,35,0.00,,,0.00,32,Wunderground v.1.15,2013-10-12 22:39:00,
2013-10-12 17:40:00,65.0,36.7,30.23,West,269,3.0,3.0,35,0.00,,,0.00,28,Wunderground v.1.15,2013-10-12 22:40:00,
2013-10-12 17:41:00,65.0,36.7,30.23,WSW,240,3.0,3.0,35,0.00,,,0.00,28,Wunderground v.1.15,2013-10-12 22:41:00,
2013-10-12 17:42:00,64.9,36.6,30.23,SW,225,2.0,4.0,35,0.00,,,0.00,28,Wunderground v.1.15,2013-10-12 22:42:00,
2013-10-12 17:45:00,64.9,35.8,30.23,WSW,239,3.0,4.0,34,0.00,,,0.00,26,Wunderground v.1.15,2013-10-12 22:45:00,
2013-10-12 17:47:00,64.8,36.5,30.23,SW,231,3.0,4.0,35,0.00,,,0.00,28,Wunderground v.1.15,2013-10-12 22:47:00,
2013-10-12 17:50:00,64.6,36.3,30.23,SW,233,3.0,3.0,35,0.00,,,0.00,26,Wunderground v.1.15,2013-10-12 22:50:00,
2013-10-12 17:52:00,64.5,36.2,30.23,SW,231,3.0,5.0,35,0.00,,,0.00,25,Wunderground v.1.15,2013-10-12 22:52:00,
2013-10-12 17:55:00,64.3,36.8,30.23,SW,231,3.0,5.0,36,0.00,,,0.00,23,Wunderground v.1.15,2013-10-12 22:55:00,
2013-10-12 17:56:00,64.3,36.0,30.23,SW,231,3.0,5.0,35,0.00,,,0.00,23,Wunderground v.1.15,2013-10-12 22:56:00,
2013-10-12 17:57:00,64.3,36.0,30.23,SW,231,3.0,5.0,35,0.00,,,0.00,23,Wunderground v.1.15,2013-10-12 22:57:00,
2013-10-12 17:59:00,64.1,36.6,30.23,WSW,238,2.0,5.0,36,0.00,,,0.00,23,Wunderground v.1.15,2013-10-12 22:59:00,
2013-10-12 18:01:00,64.0,36.5,30.23,WSW,238,2.0,14.0,36,0.00,,,0.00,21,Wunderground v.1.15,2013-10-12 23:01:00,
2013-10-12 18:02:00,63.9,36.4,30.23,SW,222,2.0,14.0,36,0.00,,,0.00,21,Wunderground v.1.15,2013-10-12 23:02:00,
2013-10-12 18:03:00,63.9,36.4,30.23,WSW,237,2.0,14.0,36,0.00,,,0.00,21,Wunderground v.1.15,2013-10-12 23:03:00,
2013-10-12 18:04:00,63.8,35.6,30.23,SW,229,2.0,14.0,35,0.00,,,0.00,21,Wunderground v.1.15,2013-10-12 23:04:00,
2013-10-12 18:08:00,63.6,36.1,30.23,SW,225,3.0,14.0,36,0.00,,,0.00,19,Wunderground v.1.15,2013-10-12 23:08:00,
2013-10-12 18:09:00,63.5,36.0,30.23,SW,225,3.0,14.0,36,0.00,,,0.00,18,Wunderground v.1.15,2013-10-12 23:09:00,
2013-10-12 18:10:00,63.5,36.0,30.24,SW,235,4.0,4.0,36,0.00,,,0.00,18,Wunderground v.1.15,2013-10-12 23:10:00,
2013-10-12 18:13:00,63.3,36.6,30.23,SW,231,4.0,5.0,37,0.00,,,0.00,18,Wunderground v.1.15,2013-10-12 23:13:00,
2013-10-12 18:15:00,63.2,36.5,30.23,SW,229,3.0,5.0,37,0.00,,,0.00,16,Wunderground v.1.15,2013-10-12 23:15:00,
2013-10-12 18:16:00,63.1,36.4,30.24,SW,229,3.0,5.0,37,0.00,,,0.00,16,Wunderground v.1.15,2013-10-12 23:16:00,
2013-10-12 18:17:00,63.1,36.4,30.24,SW,229,3.0,5.0,37,0.00,,,0.00,14,Wunderground v.1.15,2013-10-12 23:17:00,
2013-10-12 18:18:00,63.0,36.3,30.24,SW,229,3.0,5.0,37,0.00,,,0.00,14,Wunderground v.1.15,2013-10-12 23:18:00,
2013-10-12 18:19:00,63.0,36.3,30.24,SW,229,3.0,5.0,37,0.00,,,0.00,14,Wunderground v.1.15,2013-10-12 23:19:00,
2013-10-12 18:21:00,62.9,36.2,30.24,SW,229,2.0,3.0,37,0.00,,,0.00,12,Wunderground v.1.15,2013-10-12 23:21:00,
2013-10-12 18:25:00,62.6,36.6,30.24,SW,229,2.0,5.0,38,0.00,,,0.00,11,Wunderground v.1.15,2013-10-12 23:25:00,
2013-10-12 18:26:00,62.5,36.5,30.24,SW,229,2.0,5.0,38,0.00,,,0.00,11,Wunderground v.1.15,2013-10-12 23:26:00,
2013-10-12 18:27:00,62.5,36.5,30.24,SW,229,2.0,5.0,38,0.00,,,0.00,9,Wunderground v.1.15,2013-10-12 23:27:00,
2013-10-12 18:28:00,62.4,36.4,30.24,SW,229,2.0,5.0,38,0.00,,,0.00,9,Wunderground v.1.15,2013-10-12 23:28:00,
2013-10-12 18:30:00,62.2,36.3,30.24,SW,229,2.0,3.0,38,0.00,,,0.00,9,Wunderground v.1.15,2013-10-12 23:30:00,
2013-10-12 18:33:00,62.0,36.7,30.24,SW,229,2.0,3.0,39,0.00,,,0.00,7,Wunderground v.1.15,2013-10-12 23:33:00,
2013-10-12 18:34:00,61.9,36.7,30.24,SW,229,2.0,3.0,39,0.00,,,0.00,5,Wunderground v.1.15,2013-10-12 23:34:00,
2013-10-12 18:35:00,61.8,36.6,30.24,SW,229,2.0,3.0,39,0.00,,,0.00,5,Wunderground v.1.15,2013-10-12 23:35:00,
2013-10-12 18:36:00,61.8,36.6,30.24,SW,229,2.0,3.0,39,0.00,,,0.00,5,Wunderground v.1.15,2013-10-12 23:36:00,
2013-10-12 18:37:00,61.7,36.5,30.24,SW,229,2.0,3.0,39,0.00,,,0.00,5,Wunderground v.1.15,2013-10-12 23:37:00,
2013-10-12 18:38:00,61.6,36.4,30.24,SW,229,2.0,3.0,39,0.00,,,0.00,0,Wunderground v.1.15,2013-10-12 23:38:00,
2013-10-12 18:42:00,61.3,36.1,30.24,SW,229,2.0,3.0,39,0.00,,,0.00,0,Wunderground v.1.15,2013-10-12 23:42:00,
2013-10-12 18:45:00,61.1,36.6,30.24,SW,229,2.0,3.0,40,0.00,,,0.00,0,Wunderground v.1.15,2013-10-12 23:45:00,
2013-10-12 18:46:00,61.0,36.5,30.24,SW,229,2.0,3.0,40,0.00,,,0.00,0,Wunderground v.1.15,2013-10-12 23:46:00,
2013-10-12 18:49:00,60.8,36.3,30.24,SW,229,2.0,3.0,40,0.00,,,0.00,0,Wunderground v.1.15,2013-10-12 23:49:00,
2013-10-12 18:50:00,60.7,36.2,30.24,SW,229,2.0,3.0,40,0.00,,,0.00,0,Wunderground v.1.15,2013-10-12 23:50:00,
2013-10-12 18:51:00,60.6,36.1,30.24,SW,229,2.0,3.0,40,0.00,,,0.00,0,Wunderground v.1.15,2013-10-12 23:51:00,
2013-10-12 18:53:00,60.4,36.6,30.24,SW,229,2.0,3.0,41,0.00,,,0.00,0,Wunderground v.1.15,2013-10-12 23:53:00,
2013-10-12 18:57:00,60.1,36.3,30.25,SW,229,2.0,4.0,41,0.00,,,0.00,0,Wunderground v.1.15,2013-10-12 23:57:00,
2013-10-12 18:59:00,59.9,36.7,30.25,SW,229,2.0,4.0,42,0.00,,,0.00,0,Wunderground v.1.15,2013-10-12 23:59:00,
2013-10-12 19:01:00,59.8,37.2,30.25,SW,229,2.0,10.0,43,0.00,,,0.00,0,Wunderground v.1.15,2013-10-13 00:01:00,
2013-10-12 19:03:00,59.6,37.1,30.25,SW,229,2.0,10.0,43,0.00,,,0.00,0,Wunderground v.1.15,2013-10-13 00:03:00,
2013-10-12 19:04:00,59.6,37.1,30.25,SW,229,1.0,10.0,43,0.00,,,0.00,0,Wunderground v.1.15,2013-10-13 00:04:00,
2013-10-12 19:06:00,59.4,36.9,30.25,SW,229,1.0,10.0,43,0.00,,,0.00,0,Wunderground v.1.15,2013-10-13 00:06:00,
2013-10-12 19:07:00,59.3,36.8,30.25,SW,229,1.0,10.0,43,0.00,,,0.00,0,Wunderground v.1.15,2013-10-13 00:07:00,
2013-10-12 19:08:00,59.3,36.8,30.25,SW,229,1.0,10.0,43,0.00,,,0.00,0,Wunderground v.1.15,2013-10-13 00:08:00,
2013-10-12 19:09:00,59.2,36.7,30.25,SW,229,1.0,10.0,43,0.00,,,0.00,0,Wunderground v.1.15,2013-10-13 00:09:00,
2013-10-12 19:10:00,59.1,37.2,30.25,SW,229,2.0,4.0,44,0.00,,,0.00,0,Wunderground v.1.15,2013-10-13 00:10:00,
2013-10-12 19:14:00,58.7,36.8,30.26,SW,229,2.0,4.0,44,0.00,,,0.00,0,Wunderground v.1.15,2013-10-13 00:14:00,
2013-10-12 19:15:00,58.6,37.3,30.26,SW,229,3.0,4.0,45,0.00,,,0.00,0,Wunderground v.1.15,2013-10-13 00:15:00,
2013-10-12 19:16:00,58.5,37.2,30.26,SW,229,3.0,4.0,45,0.00,,,0.00,0,Wunderground v.1.15,2013-10-13 00:16:00,
2013-10-12 19:17:00,58.3,37.0,30.26,SW,229,3.0,4.0,45,0.00,,,0.00,0,Wunderground v.1.15,2013-10-13 00:17:00,
2013-10-12 19:22:00,57.7,37.0,30.26,SW,229,3.0,3.0,46,0.00,,,0.00,0,Wunderground v.1.15,2013-10-13 00:22:00,
2013-10-12 19:23:00,57.6,36.4,30.26,SW,229,3.0,3.0,45,0.00,,,0.00,0,Wunderground v.1.15,2013-10-13 00:23:00,
2013-10-12 19:24:00,57.5,36.9,30.26,SW,229,3.0,3.0,46,0.00,,,0.00,0,Wunderground v.1.15,2013-10-13 00:24:00,
2013-10-12 19:25:00,57.4,36.8,30.26,SW,229,3.0,3.0,46,0.00,,,0.00,0,Wunderground v.1.15,2013-10-13 00:25:00,
2013-10-12 19:26:00,57.3,36.7,30.26,SW,229,3.0,3.0,46,0.00,,,0.00,0,Wunderground v.1.15,2013-10-13 00:26:00,
2013-10-12 19:29:00,57.1,37.0,30.26,SW,229,3.0,3.0,47,0.00,,,0.00,0,Wunderground v.1.15,2013-10-13 00:29:00,
2013-10-12 19:30:00,57.1,37.0,30.27,SW,229,3.0,3.0,47,0.00,,,0.00,0,Wunderground v.1.15,2013-10-13 00:30:00,
2013-10-12 19:31:00,57.0,37.0,30.27,SW,229,3.0,3.0,47,0.00,,,0.00,0,Wunderground v.1.15,2013-10-13 00:31:00,
2013-10-12 19:32:00,57.0,37.0,30.27,SW,229,3.0,3.0,47,0.00,,,0.00,0,Wunderground v.1.15,2013-10-13 00:32:00,
2013-10-12 19:34:00,56.9,36.9,30.27,SW,229,2.0,3.0,47,0.00,,,0.00,0,Wunderground v.1.15,2013-10-13 00:34:00,
2013-10-12 19:35:00,56.9,36.9,30.27,SW,229,2.0,3.0,47,0.00,,,0.00,0,Wunderground v.1.15,2013-10-13 00:35:00,
2013-10-12 19:36:00,56.9,36.9,30.27,SW,229,2.0,3.0,47,0.00,,,0.00,0,Wunderground v.1.15,2013-10-13 00:36:00,
2013-10-12 19:38:00,56.8,37.8,30.27,SW,229,2.0,3.0,49,0.00,,,0.00,0,Wunderground v.1.15,2013-10-13 00:38:00,
2013-10-12 19:41:00,56.8,37.3,30.27,SW,229,2.0,2.0,48,0.00,,,0.00,0,Wunderground v.1.15,2013-10-13 00:41:00,
2013-10-12 19:42:00,56.8,37.3,30.27,SW,229,1.0,2.0,48,0.00,,,0.00,0,Wunderground v.1.15,2013-10-13 00:42:00,
2013-10-12 19:43:00,56.7,37.2,30.27,SW,229,1.0,2.0,48,0.00,,,0.00,0,Wunderground v.1.15,2013-10-13 00:43:00,
2013-10-12 19:46:00,56.6,37.6,30.27,SW,229,1.0,2.0,49,0.00,,,0.00,0,Wunderground v.1.15,2013-10-13 00:46:00,
2013-10-12 19:47:00,56.6,37.6,30.27,SW,229,1.0,2.0,49,0.00,,,0.00,0,Wunderground v.1.15,2013-10-13 00:47:00,
2013-10-12 19:52:00,56.3,37.4,30.27,SW,229,0.0,0.0,49,0.00,,,0.00,0,Wunderground v.1.15,2013-10-13 00:52:00,
2013-10-12 19:53:00,56.2,37.3,30.27,SW,229,0.0,0.0,49,0.00,,,0.00,0,Wunderground v.1.15,2013-10-13 00:53:00,
2013-10-12 19:54:00,56.1,37.2,30.27,SW,229,0.0,0.0,49,0.00,,,0.00,0,Wunderground v.1.15,2013-10-13 00:54:00,
2013-10-12 19:55:00,56.1,37.2,30.27,SW,229,0.0,0.0,49,0.00,,,0.00,0,Wunderground v.1.15,2013-10-13 00:55:00,
2013-10-12 19:57:00,56.0,36.6,30.27,SW,229,0.0,0.0,48,0.00,,,0.00,0,Wunderground v.1.15,2013-10-13 00:57:00,
2013-10-12 19:59:00,55.8,36.4,30.27,SW,229,0.0,0.0,48,0.00,,,0.00,0,Wunderground v.1.15,2013-10-13 00:59:00,
2013-10-12 20:00:00,55.7,36.3,30.27,SW,229,0.0,8.0,48,0.00,,,0.00,0,Wunderground v.1.15,2013-10-13 01:00:00,
2013-10-12 20:02:00,55.6,36.2,30.27,SW,229,0.0,8.0,48,0.00,,,0.00,0,Wunderground v.1.15,2013-10-13 01:02:00,
2013-10-12 20:04:00,55.5,36.1,30.28,WNW,288,0.0,8.0,48,0.00,,,0.00,0,Wunderground v.1.15,2013-10-13 01:04:00,
2013-10-12 20:08:00,55.3,36.5,30.28,WNW,288,1.0,8.0,49,0.00,,,0.00,0,Wunderground v.1.15,2013-10-13 01:08:00,
2013-10-12 20:09:00,55.2,36.4,30.28,WNW,288,1.0,8.0,49,0.00,,,0.00,0,Wunderground v.1.15,2013-10-13 01:09:00,
2013-10-12 20:10:00,55.2,36.4,30.28,WNW,288,1.0,1.0,49,0.00,,,0.00,0,Wunderground v.1.15,2013-10-13 01:10:00,
2013-10-12 20:11:00,55.1,36.3,30.28,WNW,288,0.0,1.0,49,0.00,,,0.00,0,Wunderground v.1.15,2013-10-13 01:11:00,
2013-10-12 20:13:00,55.0,36.2,30.28,WNW,288,0.0,1.0,49,0.00,,,0.00,0,Wunderground v.1.15,2013-10-13 01:13:00,
2013-10-12 20:16:00,54.9,36.1,30.28,WNW,288,0.0,1.0,49,0.00,,,0.00,0,Wunderground v.1.15,2013-10-13 01:16:00,
2013-10-12 20:18:00,54.8,36.0,30.28,WNW,288,0.0,3.0,49,0.00,,,0.00,0,Wunderground v.1.15,2013-10-13 01:18:00,
2013-10-12 20:20:00,54.6,35.3,30.28,NW,304,1.0,4.0,48,0.00,,,0.00,0,Wunderground v.1.15,2013-10-13 01:20:00,
2013-10-12 20:21:00,54.6,35.3,30.28,NW,304,1.0,4.0,48,0.00,,,0.00,0,Wunderground v.1.15,2013-10-13 01:21:00,
2013-10-12 20:23:00,54.6,35.3,30.28,WNW,299,2.0,4.0,48,0.00,,,0.00,0,Wunderground v.1.15,2013-10-13 01:23:00,
2013-10-12 20:24:00,54.6,35.3,30.28,WNW,302,2.0,4.0,48,0.00,,,0.00,0,Wunderground v.1.15,2013-10-13 01:24:00,
2013-10-12 20:26:00,54.6,35.3,30.28,WNW,292,3.0,4.0,48,0.00,,,0.00,0,Wunderground v.1.15,2013-10-13 01:26:00,
2013-10-12 20:27:00,54.6,35.3,30.28,WNW,292,3.0,4.0,48,0.00,,,0.00,0,Wunderground v.1.15,2013-10-13 01:27:00,
2013-10-12 20:29:00,54.7,35.4,30.28,WNW,294,3.0,4.0,48,0.00,,,0.00,0,Wunderground v.1.15,2013-10-13 01:29:00,
2013-10-12 20:32:00,54.7,35.4,30.28,WNW,294,2.0,3.0,48,0.00,,,0.00,0,Wunderground v.1.15,2013-10-13 01:32:00,
2013-10-12 20:33:00,54.7,35.4,30.28,WNW,294,2.0,3.0,48,0.00,,,0.00,0,Wunderground v.1.15,2013-10-13 01:33:00,
2013-10-12 20:35:00,54.7,35.4,30.28,WNW,294,2.0,3.0,48,0.00,,,0.00,0,Wunderground v.1.15,2013-10-13 01:35:00,
2013-10-12 20:36:00,54.7,35.4,30.28,WNW,294,2.0,3.0,48,0.00,,,0.00,0,Wunderground v.1.15,2013-10-13 01:36:00,
2013-10-12 20:39:00,54.6,35.3,30.28,WNW,294,1.0,3.0,48,0.00,,,0.00,0,Wunderground v.1.15,2013-10-13 01:39:00,
2013-10-12 20:40:00,54.6,35.3,30.28,WNW,294,1.0,3.0,48,0.00,,,0.00,0,Wunderground v.1.15,2013-10-13 01:40:00,
2013-10-12 20:44:00,54.5,35.2,30.28,WNW,294,1.0,3.0,48,0.00,,,0.00,0,Wunderground v.1.15,2013-10-13 01:44:00,
2013-10-12 20:45:00,54.5,35.2,30.28,WNW,294,1.0,3.0,48,0.00,,,0.00,0,Wunderground v.1.15,2013-10-13 01:45:00,
2013-10-12 20:46:00,54.4,35.1,30.28,WNW,294,2.0,3.0,48,0.00,,,0.00,0,Wunderground v.1.15,2013-10-13 01:46:00,
2013-10-12 20:51:00,54.2,35.4,30.29,WNW,294,2.0,2.0,49,0.00,,,0.00,0,Wunderground v.1.15,2013-10-13 01:51:00,
2013-10-12 20:52:00,54.2,35.4,30.29,WNW,294,2.0,3.0,49,0.00,,,0.00,0,Wunderground v.1.15,2013-10-13 01:52:00,
2013-10-12 20:53:00,54.2,35.4,30.29,WNW,294,2.0,3.0,49,0.00,,,0.00,0,Wunderground v.1.15,2013-10-13 01:53:00,
2013-10-12 20:56:00,54.1,35.3,30.29,WNW,294,2.0,3.0,49,0.00,,,0.00,0,Wunderground v.1.15,2013-10-13 01:56:00,
2013-10-12 20:58:00,54.0,35.3,30.29,WNW,294,1.0,3.0,49,0.00,,,0.00,0,Wunderground v.1.15,2013-10-13 01:58:00,
2013-10-12 20:59:00,53.9,35.2,30.29,WNW,294,1.0,3.0,49,0.00,,,0.00,0,Wunderground v.1.15,2013-10-13 01:59:00,
2013-10-12 21:04:00,53.7,35.5,30.30,WNW,294,1.0,5.0,50,0.00,,,0.00,0,Wunderground v.1.15,2013-10-13 02:04:00,
2013-10-12 21:05:00,53.6,35.4,30.30,WNW,294,1.0,5.0,50,0.00,,,0.00,0,Wunderground v.1.15,2013-10-13 02:05:00,
2013-10-12 21:08:00,53.5,35.3,30.30,WNW,294,1.0,5.0,50,0.00,,,0.00,0,Wunderground v.1.15,2013-10-13 02:08:00,
2013-10-12 21:09:00,53.5,35.3,30.30,WNW,294,1.0,5.0,50,0.00,,,0.00,0,Wunderground v.1.15,2013-10-13 02:09:00,
2013-10-12 21:10:00,53.4,35.2,30.30,WNW,294,1.0,2.0,50,0.00,,,0.00,0,Wunderground v.1.15,2013-10-13 02:10:00,
2013-10-12 21:11:00,53.4,35.2,30.30,WNW,294,1.0,2.0,50,0.00,,,0.00,0,Wunderground v.1.15,2013-10-13 02:11:00,
2013-10-12 21:14:00,53.3,35.1,30.30,WNW,294,2.0,2.0,50,0.00,,,0.00,0,Wunderground v.1.15,2013-10-13 02:14:00,
2013-10-12 21:15:00,53.3,35.1,30.30,WNW,294,2.0,2.0,50,0.00,,,0.00,0,Wunderground v.1.15,2013-10-13 02:15:00,
2013-10-12 21:17:00,53.2,35.5,30.30,WNW,294,1.0,2.0,51,0.00,,,0.00,0,Wunderground v.1.15,2013-10-13 02:17:00,
2013-10-12 21:18:00,53.2,35.5,30.31,WNW,294,1.0,2.0,51,0.00,,,0.00,0,Wunderground v.1.15,2013-10-13 02:18:00,
2013-10-12 21:20:00,53.1,35.4,30.31,WNW,294,1.0,1.0,51,0.00,,,0.00,0,Wunderground v.1.15,2013-10-13 02:20:00,
2013-10-12 21:23:00,53.0,35.3,30.31,WNW,294,1.0,3.0,51,0.00,,,0.00,0,Wunderground v.1.15,2013-10-13 02:23:00,
2013-10-12 21:24:00,52.9,35.2,30.31,WNW,294,1.0,3.0,51,0.00,,,0.00,0,Wunderground v.1.15,2013-10-13 02:24:00,
2013-10-12 21:26:00,52.9,35.2,30.31,WNW,294,1.0,3.0,51,0.00,,,0.00,0,Wunderground v.1.15,2013-10-13 02:26:00,
2013-10-12 21:28:00,52.8,35.2,30.31,WNW,294,1.0,3.0,51,0.00,,,0.00,0,Wunderground v.1.15,2013-10-13 02:28:00,
2013-10-12 21:30:00,52.7,35.6,30.31,WNW,294,2.0,2.0,52,0.00,,,0.00,0,Wunderground v.1.15,2013-10-13 02:30:00,
2013-10-12 21:31:00,52.6,35.5,30.31,WNW,294,1.0,2.0,52,0.00,,,0.00,0,Wunderground v.1.15,2013-10-13 02:31:00,
2013-10-12 21:32:00,52.6,35.5,30.32,WNW,294,1.0,2.0,52,0.00,,,0.00,0,Wunderground v.1.15,2013-10-13 02:32:00,
2013-10-12 21:35:00,52.5,35.4,30.32,WNW,294,1.0,2.0,52,0.00,,,0.00,0,Wunderground v.1.15,2013-10-13 02:35:00,
2013-10-12 21:37:00,52.3,35.2,30.32,WNW,294,0.0,2.0,52,0.00,,,0.00,0,Wunderground v.1.15,2013-10-13 02:37:00,
2013-10-12 21:38:00,52.3,35.2,30.32,WNW,294,0.0,2.0,52,0.00,,,0.00,0,Wunderground v.1.15,2013-10-13 02:38:00,
2013-10-12 21:39:00,52.2,35.1,30.32,WNW,294,0.0,2.0,52,0.00,,,0.00,0,Wunderground v.1.15,2013-10-13 02:39:00,
2013-10-12 21:42:00,52.0,34.9,30.32,WNW,294,0.0,0.0,52,0.00,,,0.00,0,Wunderground v.1.15,2013-10-13 02:42:00,
2013-10-12 21:44:00,51.9,35.3,30.32,WNW,294,0.0,1.0,53,0.00,,,0.00,0,Wunderground v.1.15,2013-10-13 02:44:00,
2013-10-12 21:45:00,51.8,35.2,30.32,WNW,294,0.0,1.0,53,0.00,,,0.00,0,Wunderground v.1.15,2013-10-13 02:45:00,
2013-10-12 21:47:00,51.7,35.1,30.32,WNW,294,0.0,1.0,53,0.00,,,0.00,0,Wunderground v.1.15,2013-10-13 02:47:00,
2013-10-12 21:49:00,51.6,35.0,30.32,WNW,294,0.0,1.0,53,0.00,,,0.00,0,Wunderground v.1.15,2013-10-13 02:49:00,
2013-10-12 21:50:00,51.6,35.0,30.32,WNW,294,0.0,0.0,53,0.00,,,0.00,0,Wunderground v.1.15,2013-10-13 02:50:00,
2013-10-12 21:51:00,51.5,35.4,30.32,WNW,294,0.0,0.0,54,0.00,,,0.00,0,Wunderground v.1.15,2013-10-13 02:51:00,
2013-10-12 21:52:00,51.5,35.4,30.32,WNW,294,0.0,0.0,54,0.00,,,0.00,0,Wunderground v.1.15,2013-10-13 02:52:00,
2013-10-12 21:56:00,51.3,35.2,30.32,WNW,294,0.0,0.0,54,0.00,,,0.00,0,Wunderground v.1.15,2013-10-13 02:56:00,
2013-10-12 21:57:00,51.2,35.1,30.32,WNW,294,0.0,0.0,54,0.00,,,0.00,0,Wunderground v.1.15,2013-10-13 02:57:00,
2013-10-12 21:58:00,51.2,35.1,30.32,WNW,294,0.0,0.0,54,0.00,,,0.00,0,Wunderground v.1.15,2013-10-13 02:58:00,
2013-10-12 21:59:00,51.1,35.0,30.32,WNW,294,0.0,1.0,54,0.00,,,0.00,0,Wunderground v.1.15,2013-10-13 02:59:00,
2013-10-12 22:00:00,51.1,35.0,30.32,WNW,294,0.0,0.0,54,0.00,,,0.00,0,Wunderground v.1.15,2013-10-13 03:00:00,
2013-10-12 22:03:00,50.9,35.3,30.33,WNW,294,0.0,6.0,55,0.00,,,0.00,0,Wunderground v.1.15,2013-10-13 03:03:00,
2013-10-12 22:04:00,50.9,35.3,30.33,WNW,294,0.0,6.0,55,0.00,,,0.00,0,Wunderground v.1.15,2013-10-13 03:04:00,
2013-10-12 22:05:00,50.9,35.3,30.33,WNW,294,0.0,6.0,55,0.00,,,0.00,0,Wunderground v.1.15,2013-10-13 03:05:00,
2013-10-12 22:06:00,50.9,35.3,30.33,WNW,294,0.0,6.0,55,0.00,,,0.00,0,Wunderground v.1.15,2013-10-13 03:06:00,
2013-10-12 22:07:00,50.8,35.2,30.33,WNW,294,0.0,6.0,55,0.00,,,0.00,0,Wunderground v.1.15,2013-10-13 03:07:00,
2013-10-12 22:11:00,50.6,35.9,30.33,WNW,294,1.0,3.0,57,0.00,,,0.00,0,Wunderground v.1.15,2013-10-13 03:11:00,
2013-10-12 22:12:00,50.5,35.8,30.33,WNW,294,1.0,4.0,57,0.00,,,0.00,0,Wunderground v.1.15,2013-10-13 03:12:00,
2013-10-12 22:15:00,50.3,36.1,30.33,SW,227,2.0,5.0,58,0.00,,,0.00,0,Wunderground v.1.15,2013-10-13 03:15:00,
2013-10-12 22:16:00,50.3,36.1,30.34,SW,227,2.0,5.0,58,0.00,,,0.00,0,Wunderground v.1.15,2013-10-13 03:16:00,
2013-10-12 22:17:00,50.2,36.0,30.33,SW,227,2.0,5.0,58,0.00,,,0.00,0,Wunderground v.1.15,2013-10-13 03:17:00,
2013-10-12 22:20:00,49.9,35.7,30.34,SW,227,2.0,2.0,58,0.00,,,0.00,0,Wunderground v.1.15,2013-10-13 03:20:00,
2013-10-12 22:21:00,49.8,35.6,30.34,SW,227,2.0,2.0,58,0.00,,,0.00,0,Wunderground v.1.15,2013-10-13 03:21:00,
2013-10-12 22:23:00,49.7,35.5,30.34,SW,227,2.0,2.0,58,0.00,,,0.00,0,Wunderground v.1.15,2013-10-13 03:23:00,
2013-10-12 22:25:00,49.6,35.8,30.34,SW,227,2.0,2.0,59,0.00,,,0.00,0,Wunderground v.1.15,2013-10-13 03:25:00,
2013-10-12 22:26:00,49.6,35.8,30.34,SW,227,2.0,2.0,59,0.00,,,0.00,0,Wunderground v.1.15,2013-10-13 03:26:00,
2013-10-12 22:27:00,49.5,35.8,30.34,SW,227,1.0,2.0,59,0.00,,,0.00,0,Wunderground v.1.15,2013-10-13 03:27:00,
2013-10-12 22:28:00,49.5,35.8,30.34,SW,227,1.0,2.0,59,0.00,,,0.00,0,Wunderground v.1.15,2013-10-13 03:28:00,
2013-10-12 22:30:00,49.4,35.7,30.34,SW,227,1.0,1.0,59,0.00,,,0.00,0,Wunderground v.1.15,2013-10-13 03:30:00,
2013-10-12 22:31:00,49.4,35.7,30.34,SW,227,1.0,1.0,59,0.00,,,0.00,0,Wunderground v.1.15,2013-10-13 03:31:00,
2013-10-12 22:35:00,49.2,35.5,30.34,SW,227,0.0,2.0,59,0.00,,,0.00,0,Wunderground v.1.15,2013-10-13 03:35:00,
2013-10-12 22:36:00,49.2,35.9,30.34,SW,227,0.0,2.0,60,0.00,,,0.00,0,Wunderground v.1.15,2013-10-13 03:36:00,
2013-10-12 22:37:00,49.2,35.9,30.34,SW,227,0.0,2.0,60,0.00,,,0.00,0,Wunderground v.1.15,2013-10-13 03:37:00,
2013-10-12 22:40:00,49.1,35.8,30.34,SW,227,0.0,0.0,60,0.00,,,0.00,0,Wunderground v.1.15,2013-10-13 03:40:00,
2013-10-12 22:42:00,49.0,35.7,30.34,SW,227,0.0,0.0,60,0.00,,,0.00,0,Wunderground v.1.15,2013-10-13 03:42:00,
2013-10-12 22:44:00,49.0,35.7,30.34,SW,227,0.0,0.0,60,0.00,,,0.00,0,Wunderground v.1.15,2013-10-13 03:44:00,
2013-10-12 22:46:00,48.9,35.6,30.34,SW,227,0.0,0.0,60,0.00,,,0.00,0,Wunderground v.1.15,2013-10-13 03:46:00,
2013-10-12 22:47:00,48.9,35.6,30.34,SW,227,0.0,1.0,60,0.00,,,0.00,0,Wunderground v.1.15,2013-10-13 03:47:00,
2013-10-12 22:50:00,48.8,35.5,30.34,SW,227,0.0,1.0,60,0.00,,,0.00,0,Wunderground v.1.15,2013-10-13 03:50:00,
2013-10-12 22:51:00,48.7,35.4,30.34,SW,227,0.0,1.0,60,0.00,,,0.00,0,Wunderground v.1.15,2013-10-13 03:51:00,
2013-10-12 22:54:00,48.6,35.3,30.35,SW,227,0.0,1.0,60,0.00,,,0.00,0,Wunderground v.1.15,2013-10-13 03:54:00,
2013-10-12 22:55:00,48.6,35.3,30.35,SW,227,0.0,1.0,60,0.00,,,0.00,0,Wunderground v.1.15,2013-10-13 03:55:00,
2013-10-12 22:57:00,48.5,35.2,30.35,SW,227,0.0,1.0,60,0.00,,,0.00,0,Wunderground v.1.15,2013-10-13 03:57:00,
2013-10-12 22:59:00,48.3,35.0,30.35,SW,227,0.0,1.0,60,0.00,,,0.00,0,Wunderground v.1.15,2013-10-13 03:59:00,
2013-10-12 23:00:00,48.3,35.0,30.35,SW,227,0.0,0.0,60,0.00,,,0.00,0,Wunderground v.1.15,2013-10-13 04:00:00,
2013-10-12 23:01:00,48.2,35.0,30.35,SW,227,0.0,3.0,60,0.00,,,0.00,0,Wunderground v.1.15,2013-10-13 04:01:00,
2013-10-12 23:02:00,48.2,35.0,30.35,SW,227,0.0,3.0,60,0.00,,,0.00,0,Wunderground v.1.15,2013-10-13 04:02:00,
2013-10-12 23:05:00,47.9,35.5,30.35,SW,227,0.0,3.0,62,0.00,,,0.00,0,Wunderground v.1.15,2013-10-13 04:05:00,
2013-10-12 23:06:00,47.9,35.5,30.35,SW,227,0.0,3.0,62,0.00,,,0.00,0,Wunderground v.1.15,2013-10-13 04:06:00,
2013-10-12 23:07:00,47.9,35.5,30.35,SW,227,0.0,3.0,62,0.00,,,0.00,0,Wunderground v.1.15,2013-10-13 04:07:00,
2013-10-12 23:09:00,47.8,35.4,30.35,SW,227,0.0,3.0,62,0.00,,,0.00,0,Wunderground v.1.15,2013-10-13 04:09:00,
2013-10-12 23:11:00,47.6,35.2,30.36,SW,227,0.0,1.0,62,0.00,,,0.00,0,Wunderground v.1.15,2013-10-13 04:11:00,
2013-10-12 23:12:00,47.6,35.2,30.36,SW,227,0.0,1.0,62,0.00,,,0.00,0,Wunderground v.1.15,2013-10-13 04:12:00,
2013-10-12 23:13:00,47.5,35.5,30.36,SW,227,0.0,1.0,63,0.00,,,0.00,0,Wunderground v.1.15,2013-10-13 04:13:00,
2013-10-12 23:15:00,47.4,35.4,30.36,SW,227,0.0,2.0,63,0.00,,,0.00,0,Wunderground v.1.15,2013-10-13 04:15:00,
2013-10-12 23:17:00,47.3,35.7,30.36,SW,227,0.0,2.0,64,0.00,,,0.00,0,Wunderground v.1.15,2013-10-13 04:17:00,
2013-10-12 23:18:00,47.2,35.6,30.36,SW,227,0.0,2.0,64,0.00,,,0.00,0,Wunderground v.1.15,2013-10-13 04:18:00,
2013-10-12 23:20:00,47.2,35.6,30.36,SW,227,0.0,0.0,64,0.00,,,0.00,0,Wunderground v.1.15,2013-10-13 04:20:00,
2013-10-12 23:22:00,47.1,35.5,30.36,SW,227,1.0,1.0,64,0.00,,,0.00,0,Wunderground v.1.15,2013-10-13 04:22:00,
2013-10-12 23:23:00,47.0,35.8,30.36,SW,227,0.0,1.0,65,0.00,,,0.00,0,Wunderground v.1.15,2013-10-13 04:23:00,
2013-10-12 23:25:00,47.0,35.8,30.36,SW,227,0.0,1.0,65,0.00,,,0.00,0,Wunderground v.1.15,2013-10-13 04:25:00,
2013-10-12 23:26:00,47.0,35.8,30.36,SW,227,0.0,1.0,65,0.00,,,0.00,0,Wunderground v.1.15,2013-10-13 04:26:00,
2013-10-12 23:27:00,47.0,35.8,30.36,SW,227,0.0,1.0,65,0.00,,,0.00,0,Wunderground v.1.15,2013-10-13 04:27:00,
2013-10-12 23:29:00,46.9,35.7,30.36,SW,227,0.0,1.0,65,0.00,,,0.00,0,Wunderground v.1.15,2013-10-13 04:29:00,
2013-10-12 23:31:00,46.9,35.7,30.36,SW,227,0.0,0.0,65,0.00,,,0.00,0,Wunderground v.1.15,2013-10-13 04:31:00,
2013-10-12 23:32:00,46.9,35.7,30.36,SW,227,0.0,0.0,65,0.00,,,0.00,0,Wunderground v.1.15,2013-10-13 04:32:00,
2013-10-12 23:33:00,46.8,35.6,30.36,SW,227,0.0,1.0,65,0.00,,,0.00,0,Wunderground v.1.15,2013-10-13 04:33:00,
2013-10-12 23:36:00,46.6,35.8,30.36,SW,227,0.0,1.0,66,0.00,,,0.00,0,Wunderground v.1.15,2013-10-13 04:36:00,
2013-10-12 23:38:00,46.5,35.7,30.36,SW,227,0.0,2.0,66,0.00,,,0.00,0,Wunderground v.1.15,2013-10-13 04:38:00,
2013-10-12 23:39:00,46.5,35.7,30.36,SW,228,0.0,2.0,66,0.00,,,0.00,0,Wunderground v.1.15,2013-10-13 04:39:00,
2013-10-12 23:40:00,46.4,35.7,30.37,SW,228,0.0,0.0,66,0.00,,,0.00,0,Wunderground v.1.15,2013-10-13 04:40:00,
2013-10-12 23:41:00,46.4,35.7,30.37,SW,228,0.0,0.0,66,0.00,,,0.00,0,Wunderground v.1.15,2013-10-13 04:41:00,
2013-10-12 23:44:00,46.3,35.6,30.37,SW,228,0.0,0.0,66,0.00,,,0.00,0,Wunderground v.1.15,2013-10-13 04:44:00,
2013-10-12 23:45:00,46.2,35.5,30.37,SW,228,0.0,0.0,66,0.00,,,0.00,0,Wunderground v.1.15,2013-10-13 04:45:00,
2013-10-12 23:46:00,46.2,35.5,30.37,SW,228,0.0,0.0,66,0.00,,,0.00,0,Wunderground v.1.15,2013-10-13 04:46:00,
2013-10-12 23:47:00,46.2,35.5,30.37,SW,228,0.0,0.0,66,0.00,,,0.00,0,Wunderground v.1.15,2013-10-13 04:47:00,
2013-10-12 23:49:00,46.1,35.4,30.37,SW,228,0.0,0.0,66,0.00,,,0.00,0,Wunderground v.1.15,2013-10-13 04:49:00,
2013-10-12 23:50:00,46.1,35.4,30.37,SW,228,0.0,0.0,66,0.00,,,0.00,0,Wunderground v.1.15,2013-10-13 04:50:00,
2013-10-12 23:51:00,46.0,35.7,30.37,SW,228,0.0,0.0,67,0.00,,,0.00,0,Wunderground v.1.15,2013-10-13 04:51:00,
2013-10-12 23:53:00,46.0,35.3,30.37,SW,228,0.0,1.0,66,0.00,,,0.00,0,Wunderground v.1.15,2013-10-13 04:53:00,
2013-10-12 23:55:00,45.9,35.6,30.37,SW,228,0.0,1.0,67,0.00,,,0.00,0,Wunderground v.1.15,2013-10-13 04:55:00,
2013-10-12 23:59:00,45.8,35.5,30.38,SW,228,1.0,1.0,67,0.00,,,0.00,0,Wunderground v.1.15,2013-10-13 04:59:00,